     2              OBSERVATION DATA    GPS                 RINEX VERSION / TYPE
teqc 2000Feb29 Duncan Agnew 20000704 01:25:30UTC            PGM / RUN BY / DATE
                                                            COMMENT
teqc windowed: end @ 1997 Oct 3 17:31:00.000                COMMENT
teqc windowed: end @ 1997 Oct 3 17:31:00.000                COMMENT
teqc windowed: end @ 1997 Oct 3 17:31:00.000                COMMENT
teqc windowed: end @ 1997 Oct 3 17:31:00.000                COMMENT
teqc windowed: end @ 1997 Oct 3 17:31:00.000                COMMENT
teqc windowed: end @ 1997 Oct 3 17:31:00.000                COMMENT
Original Marker Name: 6412                                  COMMENT
Campaign Name: USMC MCAGCC                                  COMMENT
4-Character Station Name: LUDL                              COMMENT
6-Character Antenna Code: TRMSST                            COMMENT
Vertical Measurement Point: BGP                             COMMENT
Vertical Offset to Rinex Ref. Point: 0.0597                 COMMENT
Radial Measurement Point: NGP                               COMMENT
Radial Offset to Rinex Ref. Point: 0.2334                   COMMENT
Antenna Height from Field Measurement: 1.6370 m             COMMENT
Additional Antenna Identification Info.:                    COMMENT
Model 14532.00                                              COMMENT
Original XYZ: -2294026.4605 -4741245.3641 3585768.6433      COMMENT
New XYZ position is based on association with SCEC monument COMMENT
E1F2L1D3+0011. Position of that monument is believed to be  COMMENT
valid to within 1 m horizontally; vertical accuracy         COMMENT
should be no worse than 3-times this value.                 COMMENT
                                                            COMMENT
Revised Rinex header created by UCSD GPS archive for        COMMENT
GSAC on 10-Aug-2000 (2000:223) 22:16:14 GMT                 COMMENT
For assistance contact dagnew@ucsd.edu                      COMMENT
or anderson@python.ucsd.edu                                 COMMENT
                                                            COMMENT
LUDLOW 1957                                                 MARKER NAME
____0001                                                    MARKER NUMBER
-Unknown- 11TH ARTILLERY US MARINE CORPS                    OBSERVER / AGENCY
16412 TRIMBLE MSGR NP 7.56; SP 3.52                         REC # / TYPE / VERS
UNKNOWN TR 4000SST L1/L2 GEO                                ANT # / TYPE
 -2315200.5187 -4710150.1868  3612962.0211                  APPROX POSITION XYZ
        1.5606        0.0000        0.0000                  ANTENNA: DELTA H/E/N
     1     1     0                                          WAVELENGTH FACT L1/2
     6    L1    L2    P1    P2    S1    S2                  # / TYPES OF OBSERV
     0                                                      INTERVAL
  1997    10     3    16    48   30.000000                  TIME OF FIRST OBS
  1997    10     3    17    30   15.000000                  TIME OF LAST OBS
                                                            END OF HEADER
 97 10  3 16 48 30.0000000  0  7G 1G21G23G 6G 3G17G26
  -1020058.95513   -794850.44915  23899275.250    23899284.648           5.500
         7.750
  -1255139.03816   -952897.01516  21605546.758    21605553.734          16.500
        18.000
    752732.66216    586545.20216  20867807.055    20867813.586          17.500
        19.750
   3711741.87714   2735370.17715  23560882.367    23560889.980           7.250
         9.000
  -1954660.49816  -1523112.03816  22324042.055    22324048.871          13.000
        13.000
    886879.02716    691074.31916  20896784.852    20896791.734          17.750
        20.000
   2815804.12215   2194131.80315  23526727.719    23526735.047           9.000
         8.750
 97 10  3 16 48 45.0000000  0  7G 1G21G23G 6G 3G17G26
  -1067922.825 3   -832146.921 5  23890167.273    23890176.145           5.500
         7.500
  -1269105.237 6   -963779.756 6  21602889.172    21602896.207          16.500
        18.000
    770511.859 6    600399.116 6  20871190.313    20871196.863          17.500
        19.750
   3774277.810 4   2784099.421 5  23572782.211    23572790.273           7.250
         8.750
  -1981476.079 6  -1544007.290 6  22318939.227    22318945.965          12.750
        13.000
    907118.893 6    706845.634 6  20900636.422    20900643.332          17.750
        20.000
   2867188.060 5   2234171.204 5  23536505.914    23536513.258           9.000
         8.750
 97 10  3 16 49  0.0000000  0  7G 1G21G23G 6G 3G17G26
  -1115653.420 3   -869339.566 5  23881084.461    23881093.188           5.750
         7.500
  -1282911.267 6   -974537.696 6  21600262.031    21600268.984          16.500
        17.750
    788450.732 6    614377.455 6  20874603.953    20874610.543          17.500
        19.750
   3836956.529 4   2832939.930 5  23584709.688    23584717.809           7.250
         8.750
  -2008082.182 6  -1564739.309 6  22313876.117    22313882.898          12.750
        13.000
    927536.048 6    722755.098 6  20904521.664    20904528.469          17.750
        20.000
   2918758.906 5   2274356.254 5  23546319.570    23546326.910           8.750
         8.750
 97 10  3 16 49 15.0000000  4  1
0.000                                                       COMMENT
 97 10  3 16 49 15.0000000  0  7G 1G21G23G 6G 3G17G26
  -1163251.186 3   -906428.703 5  23872027.164    23872035.738           5.750
         7.500
  -1296561.086 6   -985173.908 6  21597664.453    21597671.359          16.500
        18.000
    806548.869 6    628479.891 6  20878047.961    20878054.582          17.500
        19.750
   3899776.144 5   2881890.230 5  23596664.352    23596671.922           7.500
         8.250
  -2034481.280 6  -1585310.033 6  22308852.648    22308859.262          13.000
        13.000
    948127.547 6    738800.413 6  20908440.047    20908446.926          17.500
        20.000
   2970512.641 5   2314683.812 5  23556167.781    23556175.227           8.750
         8.750
 97 10  3 16 49 30.0000000  0  7G 1G21G23G 6G 3G17G26
  -1210720.469 3   -943417.711 5  23862993.563    23863002.805           6.000
         7.750
  -1310060.422 6   -995692.868 6  21595095.766    21595102.625          16.750
        18.000
    824802.930 6    642703.826 6  20881521.461    20881528.090          17.500
        19.750
   3962731.975 4   2930946.676 5  23608643.766    23608652.348           7.250
         8.250
  -2060677.670 6  -1605722.795 6  22303867.586    22303874.480          12.750
        13.000
    968893.800 6    754981.901 6  20912391.820    20912398.684          17.750
        20.000
   3022441.678 5   2355147.970 5  23566049.727    23566057.156           8.750
         8.750
 97 10  3 16 49 45.0000000  0  7G 1G21G23G 6G 3G17G26
  -1258062.048 3   -980307.227 5  23853984.961    23853993.641           6.000
         7.500
  -1323415.615 6  -1006099.502 6  21592554.203    21592561.059          16.500
        18.000
    843207.870 6    657045.339 6  20885023.766    20885030.398          17.250
        19.750
   4025823.845 5   2980109.126 5  23620650.563    23620658.219           7.500
         8.250
  -2086672.410 6  -1625978.428 6  22298920.906    22298927.754          13.000
        13.250
    989835.209 6    771299.877 6  20916376.906    20916383.766          17.750
        19.750
   3074544.556 5   2395747.588 5  23575964.477    23575972.094           8.750
         8.750
 97 10  3 16 50  0.0000000  0  7G 1G21G23G 6G 3G17G26
  -1305283.997 4  -1017103.524 5  23844999.070    23845007.547           6.250
         7.250
  -1336634.668 6  -1016400.061 6  21590038.656    21590045.500          16.750
        17.750
    861754.978 6    671497.626 6  20888553.328    20888559.906          17.500
        19.750
   4089041.439 4   3029369.547 5  23632679.633    23632688.367           7.250
         8.000
  -2112469.651 6  -1646080.169 6  22294011.914    22294018.590          12.750
        13.250
   1010942.867 6    787747.398 6  20920393.352    20920400.223          17.500
        20.000
   3126814.192 5   2436477.147 5  23585911.039    23585918.617           8.750
         9.000
 97 10  3 16 50 15.0000000  0  7G 1G21G23G 6G 3G17G26
  -1352385.937 4  -1053806.302 5  23836035.930    23836044.430           6.500
         7.750
  -1349714.527 6  -1026592.159 6  21587549.828    21587556.668          16.750
        17.750
    880448.828 6    686064.254 6  20892110.695    20892117.180          17.500
        19.750
   4152383.000 4   3078726.560 5  23644733.805    23644742.340           7.250
         7.750
  -2138066.110 6  -1666025.454 6  22289141.094    22289147.836          13.000
        13.000
   1032214.143 6    804322.410 6  20924441.180    20924448.172          17.500
        20.000
   3179248.861 5   2477335.303 5  23595889.156    23595896.750           8.750
         9.000
 97 10  3 16 50 30.0000000  0  7G 1G21G23G 6G 3G17G26
  -1399371.407 4  -1090418.327 5  23827094.898    23827103.438           6.750
         7.750
  -1362654.351 6  -1036675.128 6  21585087.391    21585094.379          16.750
        18.000
    899291.172 6    700746.594 6  20895696.203    20895702.742          17.500
        19.750
   4215846.768 4   3128178.806 5  23656810.273    23656819.016           7.000
         7.750
  -2163462.592 6  -1685814.913 6  22284308.367    22284315.027          13.000
        13.250
   1053645.114 6    821021.853 6  20928519.500    20928526.379          17.500
        20.000
   3231845.448 5   2518319.622 5  23605898.094    23605905.500           9.000
         9.000
 97 10  3 16 50 45.0000000  0  7G 1G21G23G 6G 3G17G26
  -1446240.260 4  -1126939.474 5  23818175.797    23818184.133           6.750
         7.500
  -1375448.508 6  -1046644.596 6  21582652.805    21582659.719          16.750
        18.000
    918285.853 6    715547.640 6  20899310.750    20899317.383          17.500
        19.750
   4279432.887 4   3177726.389 5  23668910.156    23668918.684           6.750
         7.500
  -2188658.006 6  -1705447.701 6  22279513.789    22279520.590          13.000
        13.250
   1075237.334 6    837846.959 6  20932628.375    20932635.160          17.750
        20.000
   3284605.882 5   2559431.626 5  23615938.133    23615945.625           9.000
         9.000
 97 10  3 16 51  0.0000000  0  7G 1G21G23G 6G 3G17G26
  -1492994.334 4  -1163371.191 5  23809278.789    23809287.133           6.750
         7.750
  -1388098.412 6  -1056501.663 6  21580245.484    21580252.453          16.750
        18.000
    937432.303 6    730466.949 6  20902954.188    20902960.793          17.250
        19.750
   4343142.118 4   3227369.911 5  23681034.094    23681042.160           6.750
         7.500
  -2213651.997 6  -1724923.524 6  22274757.617    22274764.316          13.000
        13.250
   1096992.628 6    854799.130 6  20936768.250    20936775.078          17.750
        20.000
   3337530.740 5   2600671.753 5  23626009.258    23626016.758           8.750
         9.000
 97 10  3 16 51 15.0000000  0  7G 1G21G23G 6G 3G17G26
  -1539638.613 4  -1199717.334 5  23800402.695    23800411.273           7.000
         8.000
  -1400605.191 6  -1066247.199 6  21577865.633    21577872.449          16.750
        18.000
    956728.678 6    745503.081 6  20906626.180    20906632.824          17.500
        19.750
   4406969.451 4   3277105.450 5  23693179.242    23693188.035           6.250
         7.250
  -2238445.554 6  -1744243.179 6  22270039.602    22270046.387          13.000
        13.250
   1118908.272 6    871876.249 6  20940938.617    20940945.539          17.750
        19.750
   3390619.842 5   2642039.855 5  23636111.773    23636119.406           8.750
         9.000
 97 10  3 16 51 30.0000000  0  7G 1G21G23G 6G 3G17G26
  -1586175.884 4  -1235980.109 5  23791546.953    23791555.461           6.750
         8.000
  -1412969.656 6  -1075881.846 6  21575512.734    21575519.641          16.750
        18.000
    976172.684 6    760654.247 6  20910326.172    20910332.820          17.500
        19.750
   4470909.881 3   3326929.108 5  23705347.055    23705355.535           6.000
         6.750
  -2263039.874 6  -1763407.571 6  22265359.500    22265366.102          13.250
        13.250
   1140982.346 6    889076.820 6  20945139.250    20945146.055          17.750
        19.750
   3443872.139 5   2683535.118 5  23646245.586    23646253.000           9.000
         9.000
 97 10  3 16 51 45.0000000  0  7G 1G21G23G 6G 3G17G26
  -1632605.819 4  -1272159.229 5  23782711.438    23782720.414           6.750
         8.750
  -1425190.964 6  -1085404.941 6  21573187.047    21573193.941          16.750
        18.000
    995762.259 6    775918.847 6  20914054.016    20914060.711          17.250
        19.750
   4534965.972 3   3376842.903 5  23717537.422    23717544.805           6.000
         6.750
  -2287432.609 6  -1782414.904 6  22260717.570    22260724.176          13.250
        13.250
   1163215.696 6    906401.494 6  20949370.078    20949377.016          17.750
        19.750
   3497292.725 5   2725161.528 5  23656411.117    23656418.629           9.000
         9.000
 97 10  3 16 52  0.0000000  0  7G 1G21G23G 6G 3G17G26
  -1678925.796 4  -1308252.690 5  23773897.133    23773905.844           7.000
         9.000
  -1437263.285 6  -1094811.945 6  21570889.773    21570896.629          16.750
        18.000
   1015500.452 6    791299.252 6  20917810.008    20917816.641          17.500
        19.750
   4599140.873 3   3426849.268 5  23729748.078    23729757.090           5.500
         6.500
  -2311620.472 6  -1801262.578 6  22256114.727    22256121.359          13.250
        13.250
   1185608.220 6    923850.207 6  20953631.172    20953638.055          17.750
        19.750
   3550885.804 5   2766922.332 5  23666609.453    23666617.160           8.750
         9.000
 97 10  3 16 52 15.0000000  0  7G 1G21G23G 6G 3G17G26
  -1725141.511 4  -1344264.884 5  23765102.547    23765111.090           7.000
         9.250
  -1449188.020 6  -1104103.943 6  21568620.633    21568627.492          17.000
        18.000
   1035383.791 6    806792.757 6  20921593.766    20921600.383          17.500
        19.750
   4663427.972 3   3476943.061 5  23741981.758    23741990.668           5.000
         6.750
  -2335609.410 6  -1819955.253 6  22251549.867    22251556.703          13.250
        13.500
   1208157.236 6    941420.861 6  20957922.172    20957929.031          17.750
        19.750
   3604642.590 5   2808810.706 5  23676838.984    23676846.574           8.750
         8.750
 97 10  3 16 52 30.0000000  0  7G 1G21G23G 6G 3G17G26
  -1771250.825 4  -1380194.153 5  23756328.102    23756336.793           7.000
         9.500
  -1460963.896 6  -1113279.944 6  21566379.727    21566386.539          17.000
        18.000
   1055409.825 6    822397.459 6  20925404.555    20925411.172          17.500
        19.750
   4727831.691 3   3527127.747 5  23754238.125    23754246.270           5.000
         6.750
  -2359400.291 6  -1838493.597 6  22247022.555    22247029.367          13.000
        13.500
   1230867.270 6    959116.983 6  20962243.891    20962250.652          17.750
        19.750
   3658562.408 5   2850826.129 5  23687099.594    23687107.156           9.000
         8.750
 97 10  3 16 52 45.0000000  0  7G 1G21G23G 6G 3G17G26
  -1817251.688 4  -1416038.935 5  23747574.508    23747583.027           7.250
         9.500
  -1472593.622 6  -1122342.064 6  21564166.617    21564173.445          16.750
        18.000
   1075573.026 6    838109.041 6  20929241.594    20929248.098          17.500
        19.750
   4792352.936 2   3577403.971 5  23766515.438    23766524.621           4.750
         6.750
  -2382992.619 6  -1856877.220 6  22242533.070    22242539.809          13.250
        13.500
   1253742.286 6    976941.670 6  20966596.758    20966603.527          18.000
        19.750
   3712644.186 5   2892967.738 5  23697391.180    23697398.648           9.000
         8.500
 97 10  3 16 53  0.0000000  0  7G 1G21G23G 6G 3G17G26
  -1863141.888 4  -1451797.487 5  23738841.625    23738850.207           7.250
         9.500
  -1484080.357 6  -1131292.760 6  21561980.750    21561987.691          17.000
        18.000
   1095869.878 6    853924.765 6  20933103.969    20933110.559          17.500
        19.750
   4856992.349 2   3627772.286 5  23778815.156    23778824.988           4.500
         7.000
  -2406385.743 6  -1875105.626 6  22238081.555    22238088.234          13.250
        13.500
   1276783.068 6    994895.524 6  20970981.203    20970988.070          17.750
        19.750
   3766887.651 5   2935235.350 5  23707713.461    23707721.012           9.000
         8.250
 97 10  3 16 53 15.0000000  0  7G 1G21G23G 6G 3G17G26
  -1908917.327 4  -1487466.601 5  23730131.070    23730139.602           7.250
         9.750
  -1495422.921 6  -1140131.123 6  21559822.445    21559829.230          17.000
        18.000
   1116301.227 6    869845.292 6  20936991.930    20936998.574          17.500
        19.750
   4921752.820 2   3678234.953 5  23791141.125    23791148.809           4.750
         7.000
  -2429576.399 6  -1893176.271 6  22233668.578    22233675.363          13.250
        13.500
   1299991.874 6   1012980.298 6  20975397.695    20975404.484          17.750
        19.750
   3821294.239 5   2977630.061 5  23718066.695    23718074.004           8.750
         8.000
 97 10  3 16 53 30.0000000  0  7G 1G21G23G 6G 3G17G26
  -1954578.651 5  -1523046.795 5  23721441.945    23721450.523           7.500
         9.750
  -1506624.278 6  -1148859.452 6  21557690.859    21557697.746          17.000
        18.250
   1136864.612 6    885868.701 6  20940904.906    20940911.594          17.500
        19.750
   4986630.813 3   3728789.191 5  23803485.578    23803494.680           5.000
         7.250
  -2452568.478 6  -1911092.168 6  22229293.313    22229300.031          13.250
        13.500
   1323364.272 6   1031192.544 6  20979845.305    20979852.180          17.750
        19.750
   3875858.651 5   3020147.762 5  23728449.930    23728457.109           8.750
         8.000
 97 10  3 16 53 45.0000000  0  7G 1G21G23G 6G 3G17G26
  -2000128.615 5  -1558540.233 5  23712774.008    23712782.445           7.500
         9.500
  -1517686.277 6  -1157479.188 6  21555585.805    21555592.703          17.000
        18.250
   1157556.865 6    901992.535 6  20944842.570    20944849.074          17.750
        19.750
   5051625.790 2   3779434.557 5  23815853.109    23815862.754           4.750
         7.500
  -2475363.549 6  -1928854.558 6  22224955.422    22224962.367          13.250
        13.750
   1346897.793 6   1049530.349 6  20984323.578    20984330.480          17.750
        19.750
   3930577.030 5   3062785.425 5  23738862.281    23738869.598           8.250
         7.750
 97 10  3 16 54  0.0000000  0  7G 1G21G23G 6G 3G17G26
  -2045565.708 4  -1593945.707 5  23704127.648    23704136.066           7.250
         9.750
  -1528607.332 6  -1165989.098 6  21553507.641    21553514.516          17.000
        18.250
   1178377.759 6    918216.604 6  20948804.711    20948811.180          17.750
        19.750
   5116736.332 3   3830169.993 5  23828244.352    23828252.824           5.000
         7.500
  -2497962.520 6  -1946464.134 6  22220655.102    22220661.980          13.250
        14.000
   1370594.306 6   1067995.154 6  20988832.867    20988839.723          17.750
        19.750
   3985445.431 5   3105539.996 5  23749303.422    23749310.957           8.250
         7.750
 97 10  3 16 54 15.0000000  0  7G 1G21G23G 6G 3G17G26
  -2090885.370 4  -1629259.680 5  23695503.469    23695512.043           7.250
         9.750
  -1539385.501 6  -1174387.667 6  21551456.586    21551463.504          17.000
        18.250
   1199331.083 6    934543.864 6  20952792.023    20952798.641          17.750
        19.750
   5181962.728 3   3880995.700 5  23840656.695    23840665.484           5.250
         7.500
  -2520363.154 6  -1963919.162 6  22216392.539    22216399.289          13.500
        13.750
   1394457.726 6   1086590.017 6  20993374.141    20993380.953          17.750
        19.500
   4040463.728 5   3148411.359 5  23759773.102    23759780.543           8.000
         7.500
 97 10  3 16 54 30.0000000  0  7G 1G21G23G 6G 3G17G26
  -2136088.026 4  -1664482.467 5  23686901.383    23686910.094           7.000
         9.750
  -1550027.538 6  -1182680.164 6  21549431.492    21549438.344          17.000
        18.250
   1220412.937 6    950971.280 6  20956803.727    20956810.375          17.500
        19.750
   5247300.498 3   3931908.204 5  23853089.875    23853099.027           5.500
         7.750
  -2542566.532 6  -1981220.498 6  22212167.297    22212173.957          13.500
        14.000
   1418484.508 6   1105312.179 6  20997946.227    20997953.164          17.750
        19.500
   4095629.379 5   3191397.544 5  23770270.680    23770278.305           8.000
         7.500
 97 10  3 16 54 45.0000000  0  7G 1G21G23G 6G 3G17G26
  -2181173.308 4  -1699613.814 5  23678321.930    23678330.527           6.750
         9.500
  -1560537.532 6  -1190869.763 6  21547431.383    21547438.262          17.000
        18.250
   1241622.376 6    967498.111 6  20960839.680    20960846.328          17.500
        20.000
   5312749.212 3   3982907.147 5  23865544.242    23865553.391           5.750
         7.750
  -2564572.866 6  -1998368.283 6  22207979.523    22207986.340          13.500
        14.000
   1442671.998 6   1124159.569 6  21002549.078    21002555.766          17.750
        19.500
   4150942.856 5   3234498.929 5  23780796.586    23780804.109           8.000
         7.500
 97 10  3 16 55  0.0000000  0  7G 1G21G23G 6G 3G17G26
  -2226134.441 4  -1734648.413 5  23669766.406    23669774.789           6.750
         9.750
  -1570907.547 6  -1198950.294 6  21545458.086    21545464.984          17.250
        18.500
   1262970.239 6    984132.802 6  20964902.031    20964908.672          17.500
        20.000
   5378312.102 3   4033995.066 5  23878020.602    23878029.215           5.750
         7.750
  -2586375.792 6  -2015357.578 6  22203830.445    22203837.156          13.500
        13.750
   1467024.663 6   1143135.664 6  21007183.125    21007189.973          17.750
        19.500
   4206412.072 5   3277721.648 5  23791352.047    23791359.633           8.000
         7.500
 97 10  3 16 55 15.0000000  0  7G 1G21G23G 6G 3G17G26
  -2270977.848 4  -1769591.282 5  23661232.727    23661241.473           6.750
         9.750
  -1581141.567 6  -1206924.851 6  21543510.547    21543517.605          17.250
        18.500
   1284453.438 6   1000872.957 6  20968990.195    20968996.773          17.500
        20.000
   5443983.373 4   4085167.448 5  23890518.328    23890526.395           6.250
         8.000
  -2607979.437 6  -2032191.579 6  22199719.422    22199726.246          13.500
        13.750
   1491535.362 6   1162234.905 6  21011847.297    21011854.172          17.750
        19.500
   4262031.886 5   3321061.731 5  23801936.109    23801943.855           8.000
         7.500
 97 10  3 16 55 30.0000000  0  7G 1G21G23G 6G 3G17G26
  -2315704.324 4  -1804443.018 5  23652721.602    23652730.105           6.750
         9.500
  -1591238.532 6  -1214792.609 6  21541589.234    21541596.234          17.250
        18.500
   1306073.268 6   1017719.572 6  20973104.289    20973111.109          17.500
        20.000
   5509761.238 4   4136422.877 5  23903034.352    23903043.203           6.250
         7.750
  -2629382.711 6  -2048869.446 6  22195646.633    22195653.359          13.500
        13.500
   1516205.480 6   1181458.367 6  21016542.023    21016548.965          17.750
        19.500
   4317800.305 5   3364517.604 5  23812548.859    23812556.578           8.000
         7.500
 97 10  3 16 55 45.0000000  0  7G 1G21G23G 6G 3G17G26
  -2360308.357 4  -1839199.365 5  23644233.797    23644242.160           6.500
         9.500
  -1601193.256 6  -1222549.532 6  21539694.797    21539701.820          17.250
        18.500
   1327835.062 6   1034676.810 6  20977245.383    20977252.043          17.750
        20.000
   5575649.920 4   4187764.658 5  23915572.469    23915581.703           6.500
         8.000
  -2650579.503 6  -2065386.428 6  22191613.023    22191619.770          13.500
        13.500
   1541041.499 6   1200811.099 6  21021268.070    21021274.863          17.750
        19.250
   4373722.254 5   3408093.116 5  23823190.445    23823198.211           8.000
         7.750
 97 10  3 16 56  0.0000000  0  7G 1G21G23G 6G 3G17G26
  -2404787.333 4  -1873858.258 5  23635769.719    23635778.211           6.500
         9.500
  -1611000.085 6  -1230191.219 6  21537828.750    21537835.660          17.000
        18.500
   1349740.429 6   1051745.919 6  20981413.945    20981420.637          17.750
        20.000
   5641651.538 4   4239194.434 5  23928132.953    23928141.039           6.750
         8.000
  -2671565.946 6  -2081739.493 6  22187619.289    22187626.070          13.500
        13.500
   1566048.005 6   1220296.677 6  21026026.555    21026033.316          17.750
        19.250
   4429799.888 5   3451789.934 5  23833861.539    23833869.391           8.000
         7.750
 97 10  3 16 56 15.0000000  0  7G 1G21G23G 6G 3G17G26
  -2449141.936 4  -1908420.235 5  23627328.984    23627337.750           6.500
         9.500
  -1620661.460 6  -1237719.551 6  21535990.305    21535997.211          17.250
        18.500
   1371790.561 6   1068927.839 6  20985609.914    20985616.625          17.750
        20.000
   5707765.203 4   4290711.528 5  23940713.734    23940722.348           6.750
         7.750
  -2692343.302 6  -2097929.643 6  22183665.547    22183672.340          13.500
        13.500
   1591222.155 6   1239912.892 6  21030817.133    21030823.926          17.750
        19.250
   4486033.562 5   3495608.359 5  23844562.438    23844570.102           8.000
         7.750
 97 10  3 16 56 30.0000000  0  7G 1G21G23G 6G 3G17G26
  -2493372.757 4  -1942885.779 5  23618912.313    23618920.598           6.500
         9.250
  -1630174.228 6  -1245132.101 6  21534180.117    21534186.996          17.250
        18.500
   1393985.943 6   1086222.936 6  20989833.609    20989840.109          17.750
        20.000
   5773992.915 4   4342317.493 5  23953316.500    23953324.508           6.750
         8.000
  -2712906.811 6  -2113953.150 6  22179752.508    22179759.082          13.500
        13.500
   1616560.965 6   1259657.408 6  21035639.008    21035645.820          17.750
        19.250
   4542427.069 5   3539551.305 5  23855293.969    23855301.645           8.250
         7.750
 97 10  3 16 56 45.0000000  0  7G 1G21G23G 6G 3G17G26
  -2537480.101 4  -1977255.079 5  23610518.563    23610527.113           6.500
         9.250
  -1639535.826 6  -1252426.848 6  21532398.602    21532405.371          17.250
        18.500
   1416327.825 6   1103632.190 6  20994085.156    20994091.738          17.750
        20.000
   5840338.137 4   4394015.009 5  23965941.570    23965950.254           6.500
         8.000
  -2733254.228 6  -2129808.278 6  22175880.539    22175887.195          13.750
        14.000
   1642067.028 6   1279532.260 6  21040492.555    21040499.293          17.750
        19.250
   4598981.079 5   3583619.326 5  23866055.781    23866063.469           8.250
         7.750
 97 10  3 16 57  0.0000000  0  7G 1G21G23G 6G 3G17G26
  -2581463.489 4  -2011527.807 5  23602148.922    23602157.559           6.750
         9.250
  -1648741.843 6  -1259600.366 6  21530646.813    21530653.750          17.500
        18.500
   1438818.819 6   1121157.634 6  20998364.820    20998371.492          17.750
        20.000
   5906801.307 4   4445804.441 5  23978589.227    23978597.793           6.250
         8.000
  -2753384.811 6  -2145494.447 6  22172049.695    22172056.445          13.500
        14.000
   1667741.984 6   1299538.707 6  21045378.266    21045385.254          17.750
        19.250
   4655698.503 5   3627814.686 5  23876848.977    23876856.777           8.250
         8.000
 97 10  3 16 57 15.0000000  0  7G 1G21G23G 6G 3G17G26
  -2625316.510 4  -2045698.968 5  23593804.227    23593812.535           7.000
         9.250
  -1657784.089 6  -1266646.270 6  21528926.070    21528932.941          17.500
        18.500
   1461463.891 6   1138803.142 6  21002674.141    21002680.730          17.750
        20.000
   5973388.644 3   4497690.613 5  23991260.172    23991269.289           6.000
         8.000
  -2773291.288 6  -2161005.977 6  22168261.641    22168268.383          13.500
        14.000
   1693591.992 6   1319681.567 6  21050297.453    21050304.316          17.750
        19.250
   4712588.153 5   3672144.238 5  23887674.531    23887682.520           8.000
         8.000
 97 10  3 16 57 30.0000000  0  7G 1G21G23G 6G 3G17G26
  -2669033.675 4  -2079764.239 5  23585484.914    23585493.391           7.250
         9.250
  -1666655.266 6  -1273558.868 6  21527237.977    21527244.797          17.500
        18.750
   1484268.356 6   1156572.850 6  21007013.766    21007020.500          17.750
        20.000
   6040105.455 3   4549677.683 5  24003955.836    24003965.301           6.000
         8.250
  -2792966.302 6  -2176337.157 6  22164517.672    22164524.203          14.000
        14.000
   1719624.045 6   1339966.273 6  21055251.055    21055258.039          17.750
        19.250
   4769656.525 5   3716613.072 5  23898534.297    23898542.336           8.000
         8.000
 97 10  3 16 57 45.0000000  0  7G 1G21G23G 6G 3G17G26
  -2712613.224 5  -2113722.296 5  23577191.977    23577200.488           7.500
         9.500
  -1675355.266 6  -1280338.089 6  21525582.281    21525589.180          17.500
        18.500
   1507231.777 6   1174466.411 6  21011383.586    21011390.156          18.000
        20.000
   6106950.771 3   4601764.895 5  24016676.188    24016685.488           5.750
         8.250
  -2812412.009 6  -2191489.661 6  22160817.180    22160823.895          13.750
        14.000
   1745835.878 6   1360391.068 6  21060239.102    21060245.930          17.750
        19.250
   4826905.064 5   3761222.262 5  23909428.414    23909436.535           8.000
         8.000
 97 10  3 16 58  0.0000000  0  7G 1G21G23G 6G 3G17G26
  -2756050.507 5  -2147569.490 5  23568926.477    23568934.574           8.000
         9.500
  -1683880.621 6  -1286981.224 6  21523960.070    21523967.023          17.500
        18.750
   1530357.764 6   1192486.659 6  21015784.297    21015790.883          17.750
        19.750
   6173927.305 3   4653954.344 5  24029421.586    24029430.848           5.500
         8.000
  -2831626.064 6  -2206461.651 6  22157160.727    22157167.621          13.750
        14.250
   1772229.883 6   1380957.819 6  21065261.930    21065268.777          17.750
        19.250
   4884339.108 5   3805976.034 5  23920357.797    23920365.887           7.750
         8.000
 97 10  3 16 58 15.0000000  0  7G 1G21G23G 6G 3G17G26
  -2799333.564 5  -2181296.528 5  23560689.789    23560698.070           8.000
         9.500
  -1692220.915 6  -1293480.147 6  21522372.852    21522379.785          17.250
        18.750
   1553657.958 6   1210642.640 6  21020218.203    21020224.820          18.000
        20.000
   6241047.991 3   4706256.095 5  24042194.477    24042203.168           5.500
         8.000
  -2850594.677 6  -2221242.381 6  22153551.445    22153558.168          14.000
        14.250
   1798817.474 6   1401675.413 6  21070321.289    21070328.227          17.500
        19.250
   4941971.520 5   3850884.372 5  23931324.961    23931332.996           7.750
         8.000
 97 10  3 16 58 30.0000000  0  7G 1G21G23G 6G 3G17G26
  -2842454.606 5  -2214897.295 5  23552484.086    23552492.242           8.000
         9.250
  -1700371.073 6  -1299830.917 6  21520821.992    21520828.984          17.000
        18.500
   1577136.609 6   1228937.691 6  21024686.047    21024692.684          17.750
        20.000
   6308318.492 3   4758674.616 5  24054996.094    24055004.254           5.500
         7.750
  -2869311.428 6  -2235826.860 6  22149989.695    22149996.445          14.000
        14.250
   1825604.020 6   1422548.034 6  21075418.547    21075425.453          17.500
        19.250
   4999809.608 4   3895952.968 5  23942331.195    23942339.180           7.250
         7.750
 97 10  3 16 58 45.0000000  0  7G 1G21G23G 6G 3G17G26
  -2885409.294 5  -2248368.461 5  23544310.172    23544318.230           8.250
         9.250
  -1708331.503 6  -1306033.850 6  21519307.180    21519314.016          17.000
        18.750
   1600795.887 6   1247373.484 6  21029188.320    21029194.988          17.750
        20.000
   6375741.414 3   4811211.894 5  24067825.984    24067833.930           5.500
         7.500
  -2887774.249 6  -2250213.474 6  22146476.383    22146483.145          14.000
        14.500
   1852596.540 6   1443581.160 6  21080555.031    21080561.938          17.500
        19.250
   5057852.403 4   3941181.078 5  23953376.094    23953384.391           7.250
         7.750
 97 10  3 16 59  0.0000000  0  7G 1G21G23G 6G 3G17G26
  -2928184.857 5  -2281700.032 5  23536170.313    23536178.512           8.500
         9.250
  -1716092.560 6  -1312081.422 6  21517830.234    21517837.207          17.000
        18.750
   1624648.955 6   1265960.278 6  21033727.352    21033734.016          17.750
        20.000
   6443328.495 2   4863877.088 5  24080686.906    24080695.504           4.750
         7.500
  -2905974.883 6  -2264395.785 6  22143012.898    22143019.594          14.000
        14.500
   1879807.131 6   1464784.206 6  21085733.250    21085740.137          17.750
        19.250
   5116110.738 4   3986577.120 5  23964462.164    23964470.375           6.750
         7.500
 97 10  3 16 59 15.0000000  0  7G 1G21G23G 6G 3G17G26
  -2970778.264 5  -2314889.667 5  23528065.094    23528072.945           8.750
         9.250
  -1723650.508 6  -1317970.730 6  21516392.023    21516399.016          17.000
        18.750
   1648699.218 6   1284700.737 6  21038304.039    21038310.488          17.750
        20.000
   6511082.067 2   4916672.003 5  24093579.234    24093588.871           4.250
         7.250
  -2923911.409 6  -2278372.300 6  22139599.711    22139606.449          14.250
        14.500
   1907236.631 6   1486157.835 6  21090952.727    21090959.543          17.750
        19.250
   5174587.535 4   4032143.418 5  23975589.922    23975598.219           6.750
         7.500
 97 10  3 16 59 30.0000000  0  7G 1G21G23G 6G 3G17G26
  -3013183.747 5  -2347932.874 5  23519995.398    23520003.410           8.500
         9.250
  -1731001.237 6  -1323698.567 6  21514993.211    21515000.211          17.000
        18.750
   1672951.632 6   1303598.715 6  21042919.070    21042925.742          17.750
        20.000
   6579008.085 2   4969601.288 5  24106505.477    24106515.176           4.250
         7.250
  -2941577.174 6  -2292137.829 6  22136238.094    22136244.773          14.500
        14.250
   1934891.520 6   1507707.098 6  21096215.430    21096222.355          17.750
        19.250
   5233284.443 4   4077881.220 5  23986759.883    23986767.965           6.750
         7.500
 97 10  3 16 59 45.0000000  0  7G 1G21G23G 6G 3G17G26
  -3055396.892 5  -2380826.210 5  23511962.508    23511970.727           8.750
         9.500
  -1738144.109 6  -1329264.441 6  21513633.789    21513640.883          16.750
        18.750
   1697409.982 6   1322657.155 6  21047573.367    21047579.875          17.750
        20.000
   6647109.344 2   5022667.133 5  24119464.438    24119474.273           4.000
         7.000
  -2958969.239 6  -2305690.087 6  22132928.492    22132935.016          14.250
        14.250
   1962775.945 6   1529435.208 6  21101521.555    21101528.488          17.500
        19.250
   5292200.491 4   4123789.775 5  23997971.141    23997979.566           6.500
         7.500
 97 10  3 17  0  0.0000000  0  7G 1G21G23G 6G 3G17G26
  -3097411.446 5  -2413564.793 5  23503967.523    23503975.480           8.500
         9.750
  -1745074.836 6  -1334665.005 6  21512315.164    21512322.039          17.000
        18.750
   1722080.339 6   1341880.804 6  21052267.781    21052274.637          17.750
        20.000
   6715393.828 2   5075875.750 5  24132458.406    24132468.961           3.750
         6.750
  -2976082.207 6  -2319024.868 6  22129671.898    22129678.605          14.500
        14.250
   1990897.503 6   1551348.101 6  21106872.875    21106879.887          17.500
        19.250
   5351339.444 4   4169872.031 5  24009225.242    24009233.422           6.500
         7.500
 97 10  3 17  0 15.0000000  0  7G 1G21G23G 6G 3G17G26
  -3139227.550 5  -2446148.727 5  23496009.922    23496018.145           8.250
         9.750
  -1751789.445 6  -1339897.169 6  21511037.266    21511044.266          17.000
        18.750
   1746967.976 6   1361273.759 6  21057003.727    21057010.504          17.750
        20.000
   6783866.300 2   5129230.842 5  24145488.773    24145498.145           4.000
         6.750
  -2992910.181 6  -2332137.578 6  22126469.539    22126476.219          14.250
        14.250
   2019263.315 6   1573451.322 6  21112270.648    21112277.559          17.250
        19.000
   5410703.457 4   4216129.652 5  24020521.617    24020529.516           6.500
         7.250
 97 10  3 17  0 30.0000000  0  6G 1G21G23G 3G17G26
  -3180845.344 5  -2478578.144 5  23488090.500    23488098.609           8.000
         9.750
  -1758290.281 6  -1344962.755 6  21509800.180    21509807.102          17.000
        18.750
   1772070.189 6   1380833.920 6  21061780.688    21061787.309          17.750
        20.000
  -3009455.597 6  -2345030.108 6  22123321.086    22123327.793          14.500
        14.250
   2047870.656 6   1595742.752 6  21117714.453    21117721.480          17.250
        19.000
   5470287.121 4   4262558.444 5  24031859.977    24031868.141           6.500
         7.250
 97 10  3 17  0 45.0000000  0  6G 1G21G23G 3G17G26
  -3222269.065 5  -2510856.335 5  23480207.602    23480215.922           8.000
        10.000
  -1764580.266 6  -1349864.038 6  21508603.367    21508610.277          17.000
        18.750
   1797387.441 6   1400561.637 6  21066598.281    21066605.039          17.750
        20.000
  -3025722.374 6  -2357705.521 6  22120225.719    22120232.488          14.500
        14.500
   2076715.466 6   1618219.220 6  21123203.406    21123210.461          17.000
        18.750
   5530086.503 4   4309155.325 5  24043239.500    24043247.605           6.750
         7.500
 97 10  3 17  1  0.0000000  0  6G 1G21G23G 3G17G26
  -3263501.385 5  -2542985.380 5  23472361.289    23472369.445           8.000
        10.000
  -1770661.920 6  -1354602.985 6  21507446.117    21507452.930          17.250
        18.750
   1822918.091 6   1420455.641 6  21071456.602    21071463.273          17.750
        20.000
  -3041713.191 6  -2370165.900 6  22117182.789    22117189.500          14.500
        14.500
   2105796.717 6   1640879.919 6  21128737.352    21128744.434          17.250
        18.750
   5590099.774 4   4355918.855 5  24054659.617    24054668.141           6.750
         7.750
 97 10  3 17  1 15.0000000  0  6G 1G21G23G 3G17G26
  -3304538.427 5  -2574962.252 5  23464552.188    23464560.488           8.000
        10.500
  -1776531.402 6  -1359176.604 6  21506329.125    21506336.035          17.000
        18.750
   1848660.736 6   1440514.838 6  21076355.328    21076361.961          17.500
        20.000
  -3057424.973 6  -2382408.839 6  22114192.781    22114199.496          14.500
        14.500
   2135113.852 6   1663724.438 6  21134316.359    21134323.305          17.000
        19.250
   5650329.574 4   4402851.116 5  24066121.180    24066129.238           7.000
         7.750
 97 10  3 17  1 30.0000000  0  6G 1G21G23G 3G17G26
  -3345386.848 5  -2606792.156 5  23456779.016    23456787.109           8.000
        10.000
  -1782195.784 6  -1363590.412 6  21505251.203    21505258.199          17.000
        19.000
   1874607.214 6   1460732.864 6  21081292.977    21081299.555          18.000
        20.000
  -3072862.641 6  -2394438.194 6  22111255.063    22111261.871          14.500
        14.750
   2164661.808 6   1686748.802 6  21139939.219    21139946.152          17.250
        19.000
   5710767.308 4   4449945.412 5  24077622.289    24077630.156           7.250
         7.750
 97 10  3 17  1 45.0000000  0  6G 1G21G23G 3G17G26
  -3386046.982 5  -2638475.348 5  23449041.391    23449049.645           8.000
        10.500
  -1787658.083 6  -1367846.750 6  21504211.859    21504218.828          17.250
        19.000
   1900755.243 6   1481107.938 6  21086268.695    21086275.305          17.750
        20.000
  -3088027.703 6  -2406255.129 6  22108369.430    22108376.063          14.750
        14.750
   2194439.453 6   1709952.149 6  21145605.703    21145612.656          17.250
        19.000
   5771410.304 4   4497199.644 5  24089162.234    24089170.398           7.250
         7.750
 97 10  3 17  2  0.0000000  0  6G 1G21G23G 3G17G26
  -3426524.927 5  -2670016.563 5  23441338.844    23441347.051           8.000
        10.500
  -1792921.899 6  -1371948.417 6  21503210.055    21503216.980          17.250
        19.250
   1927102.550 6   1501638.303 6  21091282.445    21091289.035          17.750
        19.750
  -3102925.540 6  -2417863.823 6  22105534.367    22105541.246          14.500
        14.750
   2224442.444 6   1733331.096 6  21151314.898    21151322.082          17.000
        19.000
   5832255.442 4   4544611.403 5  24100740.750    24100748.922           7.250
         8.000
 97 10  3 17  2 15.0000000  0  6G 1G21G23G 3G17G26
  -3466832.207 5  -2701424.796 5  23433668.430    23433676.750           8.000
        10.750
  -1798000.271 6  -1375905.596 6  21502243.719    21502250.672          17.250
        19.250
   1953634.389 6   1522312.451 6  21096331.281    21096337.953          17.750
        20.000
  -3117569.122 6  -2429274.409 6  22102747.789    22102754.496          14.500
        14.750
   2254656.853 6   1756874.785 6  21157064.484    21157071.684          17.000
        18.750
   5893290.692 4   4592171.287 5  24112355.258    24112363.363           7.250
         8.000
 97 10  3 17  2 30.0000000  0  6G 1G21G23G 3G17G26
  -3506969.825 5  -2732700.829 5  23426030.484    23426038.879           8.000
        10.750
  -1802897.901 6  -1379721.934 6  21501311.750    21501318.672          17.250
        19.000
   1980343.869 6   1543125.017 6  21101414.023    21101420.477          18.000
        19.750
  -3131960.882 6  -2440488.766 6  22100009.141    22100015.887          14.500
        14.750
   2285077.769 6   1780579.389 6  21162853.477    21162860.598          16.750
        19.000
   5954510.761 4   4639875.191 5  24124005.211    24124013.336           7.000
         8.250
 97 10  3 17  2 45.0000000  0  6G 1G21G23G 3G17G26
  -3546941.684 5  -2763847.685 5  23418424.125    23418432.316           8.000
        11.000
  -1807622.189 6  -1383403.196 6  21500412.742    21500419.590          17.250
        19.000
   2007223.511 6   1564070.192 6  21106529.063    21106535.586          18.000
        19.750
  -3146105.203 6  -2451510.316 6  22097317.742    22097324.395          14.500
        14.750
   2315698.735 6   1804439.874 6  21168680.336    21168687.344          16.750
        19.000
   6015912.107 4   4687720.340 5  24135689.742    24135697.914           6.750
         8.250
 97 10  3 17  3  0.0000000  0  6G 1G21G23G 3G17G26
  -3586750.038 5  -2794867.148 5  23410849.039    23410857.063           8.250
        10.750
  -1812174.758 6  -1386950.651 6  21499546.352    21499553.223          17.250
        19.000
   2034270.593 6   1585145.831 6  21111675.938    21111682.430          18.000
        19.750
  -3160003.667 6  -2462340.284 6  22094672.852    22094679.516          14.500
        14.750
   2346520.884 6   1828457.121 6  21174545.672    21174552.781          16.750
        19.250
   6077494.628 4   4735706.680 5  24147408.273    24147416.445           6.750
         8.250
 97 10  3 17  3 15.0000000  0  6G 1G21G23G 3G17G26
  -3626402.108 5  -2825764.823 5  23403303.258    23403311.480           8.250
        11.000
  -1816563.218 6  -1390370.232 6  21498711.313    21498718.324          17.250
        19.000
   2061472.508 6   1606342.114 6  21116852.336    21116858.719          18.000
        19.750
  -3173665.196 6  -2472985.629 6  22092073.227    22092079.879          14.500
        14.750
   2377534.927 6   1852623.902 6  21180447.477    21180454.582          16.750
        19.250
   6139247.315 4   4783825.613 5  24159159.414    24159167.793           6.500
         8.250
 97 10  3 17  3 30.0000000  0  6G 1G21G23G 3G17G26
  -3665906.741 5  -2856547.621 5  23395786.063    23395794.012           8.250
        11.000
  -1820794.978 6  -1393667.707 6  21497906.047    21497912.941          17.250
        19.000
   2088822.363 6   1627653.684 6  21122056.703    21122063.207          18.000
        19.750
  -3187095.301 6  -2483450.645 6  22089517.516    22089524.211          14.750
        14.750
   2408732.257 6   1876933.499 6  21186384.180    21186391.199          16.750
        19.000
   6201160.916 4   4832069.928 5  24170941.172    24170949.527           6.500
         8.250
 97 10  3 17  3 45.0000000  0  6G 1G21G23G 3G17G26
  -3705276.900 5  -2887225.624 5  23388293.789    23388302.094           8.250
        11.000
  -1824882.691 6  -1396852.936 6  21497128.148    21497135.164          17.250
        19.250
   2116307.995 6   1649071.049 6  21127287.117    21127293.727          18.000
        20.000
  -3200306.591 6  -2493745.160 6  22087003.461    22087010.086          14.750
        14.750
   2440102.079 6   1901377.512 6  21192353.547    21192360.680          16.750
        19.000
   6263225.180 4   4880431.637 5  24182751.672    24182759.910           6.500
         8.000
 97 10  3 17  4  0.0000000  0  6G 1G21G23G 3G17G26
  -3744516.373 5  -2917801.802 5  23380826.688    23380835.113           8.000
        11.000
  -1828831.232 6  -1399929.722 6  21496376.766    21496383.738          17.000
        19.000
   2143925.899 6   1670591.484 6  21132542.633    21132549.203          18.000
        20.000
  -3213302.649 6  -2503871.954 6  22084530.352    22084537.125          14.750
        14.750
   2471639.060 6   1925951.772 6  21198354.867    21198362.035          16.750
        19.000
   6325437.134 4   4928908.452 5  24194589.828    24194598.367           6.250
         7.750
 97 10  3 17  4 15.0000000  0  6G 1G21G23G 3G17G26
  -3783624.231 5  -2948275.415 5  23373384.781    23373393.000           8.250
        11.000
  -1832642.145 6  -1402899.264 6  21495651.641    21495658.492          17.250
        19.000
   2171673.317 6   1692212.837 6  21137823.000    21137829.477          18.000
        20.000
  -3226083.161 6  -2513830.798 6  22082098.383    22082105.102          14.500
        15.000
   2503341.958 6   1950655.322 6  21204387.625    21204394.953          16.500
        19.250
   6387796.016 3   4977499.751 5  24206456.289    24206465.004           6.000
         7.750
 97 10  3 17  4 30.0000000  0  6G 1G21G23G 3G17G26
  -3822609.425 5  -2978653.464 5  23365966.016    23365974.273           8.500
        10.750
  -1836324.301 6  -1405768.474 6  21494950.914    21494957.781          17.250
        19.250
   2199535.731 6   1713923.805 6  21143124.844    21143131.586          18.000
        20.000
  -3238657.516 6  -2523628.992 6  22079705.398    22079712.238          14.500
        15.000
   2535199.620 6   1975479.465 6  21210450.016    21210457.324          16.750
        19.250
   6450291.483 3   5026197.469 5  24218348.594    24218357.441           6.000
         7.750
 97 10  3 17  4 45.0000000  0  6G 1G21G23G 3G17G26
  -3861475.049 5  -3008938.331 5  23358570.203    23358578.402           8.750
        10.750
  -1839878.582 6  -1408538.050 6  21494274.516    21494281.445          17.250
        19.250
   2227512.382 6   1735723.781 6  21148448.703    21148455.297          18.000
        20.000
  -3251028.119 6  -2533268.427 6  22077351.422    22077358.254          14.750
        15.000
   2567208.981 6   2000421.812 6  21216541.281    21216548.453          16.500
        19.250
   6512922.281 3   5075000.646 5  24230267.141    24230275.813           6.000
         7.500
 97 10  3 17  5  0.0000000  0  6G 1G21G23G 3G17G26
  -3900223.609 5  -3039131.975 5  23351196.563    23351204.754           9.000
        10.750
  -1843302.999 6  -1411206.427 6  21493623.023    21493629.922          17.250
        19.250
   2255601.345 6   1757611.281 6  21153793.813    21153800.520          17.750
        20.250
  -3263199.335 6  -2542752.489 6  22075035.320    22075042.082          14.750
        15.000
   2599365.539 6   2025478.864 6  21222660.391    21222667.680          16.500
        19.000
   6575688.220 3   5123909.128 5  24242211.313    24242219.820           6.000
         7.500
 97 10  3 17  5 15.0000000  0  6G 1G21G23G 3G17G26
  -3938861.949 5  -3069239.746 5  23343843.875    23343852.055           9.000
        10.750
  -1846602.182 6  -1413777.214 6  21492995.156    21493002.070          17.250
        19.250
   2283795.793 6   1779580.974 6  21159159.000    21159165.730          17.750
        20.250
  -3275179.686 6  -2552087.830 6  22072755.508    22072762.254          14.750
        15.000
   2631661.566 6   2050644.581 6  21228806.109    21228813.320          16.500
        19.000
   6638580.224 4   5172915.839 5  24254179.594    24254187.852           6.250
         7.250
 97 10  3 17  5 30.0000000  0  6G 1G21G23G 3G17G26
  -3977398.041 5  -3099267.839 5  23336510.852    23336518.707           9.250
        10.500
  -1849780.752 6  -1416254.029 6  21492390.289    21492397.098          17.500
        19.000
   2312090.692 6   1801628.935 6  21164543.320    21164549.980          17.750
        20.000
  -3286973.739 6  -2561278.000 6  22070511.203    22070517.859          14.750
        15.000
   2664088.705 6   2075912.470 6  21234976.969    21234983.977          16.750
        19.000
   6701591.407 4   5222015.434 5  24266170.141    24266178.625           6.500
         7.250
 97 10  3 17  5 45.0000000  0  6G 1G21G23G 3G17G26
  -4015826.035 5  -3129211.691 5  23329198.211    23329206.293           9.250
        10.750
  -1852832.731 6  -1418632.192 6  21491809.477    21491816.414          17.500
        19.000
   2340494.484 6   1823761.752 6  21169948.438    21169955.129          18.000
        20.250
  -3298576.145 6  -2570318.835 6  22068303.461    22068310.156          14.750
        15.000
   2696655.037 6   2101288.835 6  21241174.180    21241181.211          16.750
        18.750
   6764731.300 4   5271215.326 5  24278185.352    24278192.949           6.750
         6.750
 97 10  3 17  6  0.0000000  0  6G 1G21G23G 3G17G26
  -4054152.403 5  -3159076.379 5  23321904.875    23321912.840           9.500
        10.750
  -1855764.076 6  -1420916.359 6  21491251.648    21491258.598          17.000
        19.250
   2369001.214 6   1845974.784 6  21175373.117    21175379.898          18.000
        20.250
  -3309994.697 6  -2579216.405 6  22066130.492    22066137.164          15.000
        15.250
   2729354.310 6   2126768.777 6  21247396.734    21247403.680          16.750
        19.000
   6827993.273 4   5320510.339 5  24290223.352    24290231.676           6.500
         6.750
 97 10  3 17  6 15.0000000  0  6G 1G21G23G 3G17G26
  -4092380.854 5  -3188864.755 5  23314630.297    23314638.125           9.750
        10.500
  -1858576.374 6  -1423107.761 6  21490716.563    21490723.410          17.250
        19.250
   2397610.892 6   1868268.034 6  21180817.352    21180824.074          18.000
        20.250
  -3321232.932 6  -2587973.472 6  22063991.930    22063998.625          14.750
        15.250
   2762185.104 6   2152351.200 6  21253644.156    21253651.137          16.750
        18.750
   6891372.687 4   5369896.867 5  24302284.367    24302292.594           6.750
         6.750
 97 10  3 17  6 30.0000000  0  6G 1G21G23G 3G17G26
  -4130514.658 5  -3218579.376 5  23307373.594    23307381.563           9.500
        10.750
  -1861270.700 6  -1425207.234 6  21490203.852    21490210.730          17.500
        19.250
   2426319.669 6   1890638.501 6  21186280.414    21186287.074          18.000
        20.250
  -3332294.515 6  -2596592.874 6  22061887.109    22061893.754          15.000
        15.000
   2795147.239 6   2178035.976 6  21259916.844    21259923.727          16.750
        18.750
   6954865.409 4   5419371.692 5  24314366.516    24314375.152           6.750
         6.750
 97 10  3 17  6 45.0000000  0  6G 1G21G23G 3G17G26
  -4168559.670 5  -3248224.819 5  23300133.734    23300141.832           9.500
        10.750
  -1863849.914 6  -1427217.008 6  21489712.977    21489719.977          17.250
        19.250
   2455124.570 6   1913083.869 6  21191761.828    21191768.500          18.000
        20.250
  -3343184.294 6  -2605078.423 6  22059814.711    22059821.348          15.000
        15.250
   2828238.843 6   2203821.622 6  21266213.844    21266220.770          16.750
        18.750
   7018466.476 4   5468930.920 5  24326469.664    24326478.082           6.750
         6.750
 97 10  3 17  7  0.0000000  0  6G 1G21G23G 3G17G26
  -4206517.374 5  -3277802.218 5  23292910.406    23292918.938           9.250
        10.750
  -1866319.093 6  -1429141.050 6  21489243.133    21489250.141          17.250
        19.250
   2484027.535 6   1935605.647 6  21197262.094    21197268.652          18.000
        20.000
  -3353904.476 6  -2613431.815 6  22057774.758    22057781.383          15.000
        15.250
   2861459.966 6   2229708.204 6  21272535.547    21272542.645          16.750
        18.750
   7082174.577 4   5518573.576 5  24338593.047    24338601.609           6.750
         6.750
 97 10  3 17  7 15.0000000  0  6G 1G21G23G 3G17G26
  -4244385.331 5  -3307309.685 5  23285704.555    23285712.586           9.250
        10.500
  -1868675.288 6  -1430977.042 6  21488794.719    21488801.746          17.250
        19.250
   2513034.409 6   1958208.394 6  21202781.867    21202788.316          18.250
        20.000
  -3364449.624 6  -2621648.805 6  22055768.141    22055774.832          15.000
        15.250
   2894817.173 6   2255700.824 6  21278883.359    21278890.223          16.750
        18.750
   7145990.120 4   5568299.931 5  24350736.672    24350745.254           6.750
         6.750
 97 10  3 17  7 30.0000000  0  6G 1G21G23G 3G17G26
  -4282162.968 5  -3336746.770 5  23278515.625    23278523.582           9.250
        10.750
  -1870921.198 6  -1432727.103 6  21488367.352    21488374.250          17.250
        19.250
   2542149.614 6   1980895.565 6  21208322.250    21208328.680          18.250
        19.750
  -3374815.121 6  -2629725.814 6  22053795.664    22053802.313          15.000
        15.250
   2928314.108 6   2281802.325 6  21285257.734    21285264.543          16.750
        18.750
   7209911.636 4   5618108.872 5  24362900.648    24362908.910           6.500
         6.500
 97 10  3 17  7 45.0000000  0  6G 1G21G23G 3G17G26
  -4319854.532 5  -3366116.796 5  23271343.125    23271351.195           9.000
        10.500
  -1873064.393 6  -1434397.130 6  21487959.469    21487966.414          17.250
        19.250
   2571368.621 6   2003663.605 6  21213882.531    21213888.914          18.250
        19.750
  -3385006.172 6  -2637666.898 6  22051856.172    22051862.809          14.750
        15.250
   2961946.540 6   2308009.403 6  21291657.609    21291664.422          16.750
        18.750
   7273932.371 4   5667995.128 5  24375083.320    24375091.715           6.500
         6.500
 97 10  3 17  8  0.0000000  0  6G 1G21G23G 3G17G26
  -4357450.290 5  -3395412.154 5  23264188.922    23264196.875           9.000
        10.500
  -1875102.643 6  -1435985.381 6  21487571.703    21487578.754          17.250
        19.250
   2600696.728 6   2026516.662 6  21219463.531    21219470.008          18.250
        20.000
  -3395015.346 6  -2645466.258 6  22049951.469    22049958.219          14.500
        15.250
   2995720.960 6   2334327.125 6  21298084.727    21298091.660          16.750
        18.500
   7338055.784 4   5717961.389 5  24387285.711    24387294.031           6.250
         6.750
 97 10  3 17  8 15.0000000  0  6G 1G21G23G 3G17G26
  -4394955.720 5  -3424637.126 5  23257051.859    23257059.895           9.000
        10.250
  -1877044.703 6  -1437498.674 6  21487202.242    21487209.039          17.500
        19.250
   2630124.603 6   2049447.471 6  21225063.359    21225069.785          18.250
        20.000
  -3404849.720 6  -2653129.405 6  22048080.219    22048086.957          14.750
        15.250
   3029628.383 6   2360748.482 6  21304537.055    21304543.852          16.750
        18.500
   7402269.172 4   5767997.764 5  24399505.164    24399513.738           6.250
         6.750
 97 10  3 17  8 30.0000000  0  6G 1G21G23G 3G17G26
  -4432361.683 5  -3453784.606 5  23249933.758    23249941.648           9.250
        10.500
  -1878884.807 6  -1438932.522 6  21486852.031    21486858.879          17.500
        19.250
   2659655.490 6   2072458.533 6  21230682.906    21230689.383          18.250
        19.750
  -3414501.077 6  -2660649.944 6  22046243.414    22046250.305          14.750
        15.250
   3063673.179 6   2387276.887 6  21311015.617    21311022.453          16.750
        18.500
   7466576.814 3   5818107.555 5  24411742.391    24411750.594           6.000
         6.500
 97 10  3 17  8 45.0000000  0  6G 1G21G23G 3G17G26
  -4469669.384 5  -3482855.501 5  23242834.141    23242842.230           9.250
        10.750
  -1880628.593 6  -1440291.317 6  21486520.133    21486526.996          17.500
        19.500
   2689283.826 6   2095545.554 6  21236320.867    21236327.375          18.250
        20.000
  -3423970.478 6  -2668028.694 6  22044441.391    22044448.172          14.500
        15.250
   3097847.035 6   2413905.855 6  21317518.664    21317525.500          16.750
        18.500
   7530975.566 3   5868288.359 5  24423997.133    24424005.594           5.750
         6.750
 97 10  3 17  9  0.0000000  0  6G 1G21G23G 3G17G26
  -4506879.702 5  -3511850.512 5  23235753.570    23235761.223           9.000
        10.750
  -1882279.913 6  -1441578.060 6  21486206.039    21486212.906          17.750
        19.500
   2719008.059 6   2118707.276 6  21241977.336    21241983.875          18.250
        20.000
  -3433257.701 6  -2675265.491 6  22042674.250    22042681.016          14.500
        15.500
   3132144.814 6   2440631.388 6  21324045.258    21324052.285          16.500
        18.500
   7595464.515 3   5918539.444 5  24436269.234    24436277.836           5.750
         7.250
 97 10  3 17  9 15.0000000  0  6G 1G21G23G 3G17G26
  -4543984.913 5  -3540763.607 5  23228692.602    23228700.266           9.250
        10.750
  -1883829.993 6  -1442785.907 6  21485911.016    21485917.871          17.500
        19.500
   2748836.811 6   2141950.450 6  21247653.609    21247660.117          18.000
        20.000
  -3442352.769 6  -2682352.553 6  22040943.641    22040950.293          14.750
        15.500
   3166573.287 6   2467458.759 6  21330596.922    21330603.844          16.500
        18.500
   7660050.925 3   5968866.467 5  24448559.828    24448567.684           5.750
         6.500
 97 10  3 17  9 30.0000000  0  6G 1G21G23G 3G17G26
  -4580987.375 5  -3569596.672 5  23221651.039    23221658.852           9.250
        10.500
  -1885279.057 6  -1443915.055 6  21485635.227    21485642.145          17.750
        19.250
   2778763.839 6   2165270.208 6  21253348.484    21253355.082          18.250
        20.250
  -3451256.405 6  -2689290.448 6  22039249.266    22039255.996          15.000
        15.750
   3201129.468 6   2494385.643 6  21337172.797    21337179.777          16.500
        18.750
   7724729.545 3   6019265.340 5  24460867.602    24460875.797           5.500
         6.500
 97 10  3 17  9 45.0000000  0  6G 1G21G23G 3G17G26
  -4617887.091 5  -3598349.664 5  23214629.344    23214637.078           9.250
        10.500
  -1886630.303 6  -1444967.971 6  21485378.094    21485384.902          17.500
        19.500
   2808781.792 6   2188660.813 6  21259060.844    21259067.242          18.250
        20.000
  -3459974.327 6  -2696083.640 6  22037590.250    22037597.035          14.750
        15.750
   3235809.305 6   2521408.882 6  21343772.023    21343779.031          16.500
        18.500
   7789499.990 3   6069735.757 5  24473192.891    24473201.352           5.750
         7.000
 97 10  3 17 10  0.0000000  0  6G 1G21G23G 3G17G26
  -4654683.010 5  -3627021.760 5  23207627.289    23207634.980           9.250
        10.750
  -1887883.876 6  -1445944.781 6  21485139.516    21485146.469          17.500
        19.500
   2838886.345 6   2212118.894 6  21264789.609    21264796.188          18.250
        20.000
  -3468507.558 6  -2702732.911 6  22035966.484    22035973.156          15.000
        15.750
   3270611.166 6   2548527.208 6  21350394.727    21350401.676          16.750
        18.750
   7854363.885 3   6120279.005 5  24485536.266    24485544.449           6.000
         6.750
 97 10  3 17 10 15.0000000  0  6G 1G21G23G 3G17G26
  -4691376.486 5  -3655614.040 5  23200644.703    23200652.547           9.250
        11.000
  -1889039.248 6  -1446845.073 6  21484919.703    21484926.633          17.750
        19.500
   2869074.398 6   2235642.045 6  21270534.047    21270540.715          18.250
        20.000
  -3476858.564 6  -2709240.180 6  22034377.289    22034383.773          15.000
        15.750
   3305534.182 6   2575739.942 6  21357040.313    21357047.297          16.750
        18.500
   7919323.026 3   6170896.463 5  24497897.539    24497906.207           5.750
         6.500
 97 10  3 17 10 30.0000000  0  6G 1G21G23G 3G17G26
  -4727967.028 5  -3684126.108 5  23193681.820    23193689.578           9.250
        11.250
  -1890091.055 6  -1447664.662 6  21484719.539    21484726.434          17.500
        19.500
   2899349.048 6   2259232.669 6  21276295.227    21276301.934          18.000
        20.000
  -3485026.049 6  -2715604.454 6  22032823.086    22032829.914          15.000
        15.750
   3340581.222 6   2603049.303 6  21363709.617    21363716.570          16.750
        18.500
   7984384.705 3   6221593.821 5  24510278.313    24510286.648           5.750
         6.250
 97 10  3 17 10 45.0000000  0  6G 1G21G23G 3G17G26
  -4764461.710 5  -3712563.479 5  23186737.188    23186744.836           9.250
        11.250
  -1891041.099 6  -1448404.955 6  21484538.719    21484545.602          17.500
        19.500
   2929707.800 6   2282888.826 6  21282072.164    21282078.805          18.000
        20.000
  -3493013.872 6  -2721828.737 6  22031303.133    22031309.879          15.000
        15.750
   3375749.482 6   2630453.132 6  21370401.938    21370408.793          16.750
        18.500
   8049549.891 3   6272371.841 5  24522678.883    24522687.273           6.000
         6.250
 97 10  3 17 11  0.0000000  0  6G 1G21G23G 3G17G26
  -4800863.560 5  -3740928.510 5  23179809.938    23179817.859           9.250
        11.500
  -1891889.865 6  -1449066.328 6  21484377.141    21484384.137          17.500
        19.500
   2960150.756 6   2306610.600 6  21287865.344    21287871.988          18.000
        20.000
  -3500822.936 6  -2727913.722 6  22029817.016    22029823.824          15.000
        16.000
   3411041.198 6   2657953.162 6  21377117.766    21377124.695          16.750
        18.500
   8114818.890 3   6323230.749 5  24535099.141    24535107.391           6.000
         6.000
 97 10  3 17 11 15.0000000  0  6G 1G21G23G 3G17G26
  -4837174.908 5  -3769223.014 5  23172900.117    23172907.840           9.500
        11.500
  -1892635.845 6  -1449647.612 6  21484235.234    21484242.191          17.750
        19.500
   2990678.015 6   2330398.065 6  21293674.484    21293681.156          18.000
        20.250
  -3508455.533 6  -2733861.204 6  22028364.578    22028371.488          14.750
        16.000
   3446458.717 6   2685551.224 6  21383857.414    21383864.402          16.750
        18.500
   8180189.065 3   6374168.485 5  24547538.703    24547546.664           6.000
         6.000
 97 10  3 17 11 30.0000000  0  6G 1G21G23G 3G17G26
  -4873390.539 5  -3797442.941 5  23166008.508    23166016.359           9.750
        11.750
  -1893276.939 6  -1450147.171 6  21484113.313    21484120.148          17.750
        19.500
   3021291.425 6   2354252.659 6  21299499.984    21299506.711          18.000
        20.250
  -3515910.737 6  -2739670.455 6  22026945.836    22026952.750          14.750
        16.000
   3482006.471 6   2713250.758 6  21390622.016    21390628.926          16.750
        18.250
   8245661.463 4   6425185.892 5  24559997.891    24560005.918           6.250
         5.750
 97 10  3 17 11 45.0000000  0  6G 1G21G23G 3G17G26
  -4909506.298 5  -3825585.045 5  23159136.039    23159143.664           9.750
        11.750
  -1893815.491 6  -1450566.815 6  21484010.813    21484017.723          17.750
        19.500
   3051989.520 6   2378173.242 6  21305341.734    21305348.391          18.000
        20.250
  -3523189.809 6  -2745342.460 6  22025560.547    22025567.410          14.750
        16.000
   3517683.708 6   2741051.189 6  21397411.133    21397418.023          16.750
        18.250
   8311237.625 4   6476284.152 5  24572476.648    24572484.723           6.250
         6.000
 97 10  3 17 12  0.0000000  0  6G 1G21G23G 3G17G26
  -4945523.733 5  -3853650.536 6  23152282.133    23152289.715          10.000
        12.000
  -1894254.733 6  -1450909.081 6  21483927.305    21483934.164          17.750
        19.500
   3082773.009 6   2402160.367 6  21311199.547    21311206.383          18.000
        20.250
  -3530295.357 6  -2750879.242 6  22024208.547    22024215.414          14.750
        16.000
   3553486.042 6   2768949.106 6  21404224.078    21404231.125          16.500
        18.250
   8376916.389 4   6527462.362 5  24584974.867    24584983.016           6.250
         6.000
 97 10  3 17 12 15.0000000  0  6G 1G21G23G 3G17G26
  -4981443.946 5  -3881640.275 6  23145446.570    23145454.352          10.000
        12.000
  -1894593.754 6  -1451173.258 6  21483862.695    21483869.445          17.750
        19.250
   3113644.001 6   2426215.671 6  21317074.133    21317080.809          18.000
        20.250
  -3537225.421 6  -2756279.299 6  22022889.828    22022896.719          14.750
        16.250
   3589413.276 6   2796944.339 6  21411060.742    21411067.695          16.750
        18.000
   8442697.027 4   6578719.948 5  24597492.828    24597501.227           6.250
         6.250
 97 10  3 17 12 30.0000000  0  6G 1G21G23G 3G17G26
  -5017269.970 5  -3909556.610 6  23138629.133    23138636.742          10.250
        12.000
  -1894836.870 6  -1451362.694 6  21483816.453    21483823.277          17.750
        19.250
   3144600.936 6   2450337.947 6  21322964.945    21322971.715          18.000
        20.250
  -3543983.692 6  -2761545.490 6  22021603.781    22021610.723          14.750
        16.250
   3625462.132 6   2825034.344 6  21417920.648    21417927.574          16.750
        18.000
   8508573.807 3   6630052.448 5  24610028.758    24610036.984           6.000
         6.250
 97 10  3 17 12 45.0000000  0  6G 1G21G23G 3G17G26
  -5052998.545 5  -3937397.017 6  23131830.203    23131837.754          10.500
        12.000
  -1894982.030 6  -1451475.801 6  21483788.922    21483795.664          18.000
        19.250
   3175649.372 6   2474531.527 6  21328873.359    21328880.047          18.000
        20.250
  -3550564.572 6  -2766673.446 6  22020351.492    22020358.359          15.000
        16.250
   3661634.311 6   2853220.449 6  21424803.914    21424810.855          16.750
        18.250
   8574544.255 3   6681457.922 5  24622582.492    24622591.121           6.000
         6.250
 97 10  3 17 13  0.0000000  0  6G 1G21G23G 3G17G26
  -5088631.015 5  -3965162.542 6  23125049.617    23125057.137          10.750
        12.000
  -1895032.145 6  -1451514.853 6  21483779.281    21483786.012          17.750
        19.500
   3206786.395 6   2498794.130 6  21334798.453    21334805.219          17.750
        20.250
  -3556968.421 6  -2771663.454 6  22019132.906    22019139.727          15.000
        16.250
   3697928.778 6   2881501.840 6  21431710.641    21431717.563          16.500
        18.000
   8640602.201 3   6732931.587 5  24635152.891    24635161.336           6.000
         6.500
 97 10  3 17 13 15.0000000  0  6G 1G21G23G 3G17G26
  -5124162.754 5  -3992849.578 6  23118287.938    23118295.602          10.500
        12.250
  -1894988.233 6  -1451480.630 6  21483787.766    21483794.547          17.750
        19.250
   3238014.226 6   2523127.494 6  21340740.961    21340747.691          17.750
        20.250
  -3563193.516 6  -2776514.178 6  22017948.383    22017955.141          15.000
        16.250
   3734348.126 6   2909880.543 6  21438641.047    21438647.910          16.500
        18.000
   8706746.824 3   6784472.802 5  24647739.859    24647748.441           5.750
         6.500
 97 10  3 17 13 30.0000000  0  6G 1G21G23G 3G17G26
  -5159593.787 5  -4020458.128 6  23111545.656    23111553.164          10.500
        12.250
  -1894853.990 6  -1451376.026 6  21483813.250    21483819.980          17.750
        19.250
   3269332.378 6   2547531.242 6  21346700.766    21346707.465          17.750
        20.250
  -3569241.580 6  -2781226.958 6  22016797.461    22016804.223          15.000
        16.250
   3770890.477 6   2938355.087 6  21445594.875    21445601.813          16.750
        18.000
   8772975.546 3   6836079.541 5  24660342.578    24660351.438           5.750
         6.500
 97 10  3 17 13 45.0000000  0  6G 1G21G23G 3G17G26
  -5194920.960 5  -4047985.762 6  23104823.250    23104830.613          10.500
        12.250
  -1894627.284 6  -1451199.371 6  21483856.328    21483863.191          17.750
        19.500
   3300742.153 6   2572006.384 6  21352677.672    21352684.449          17.750
        20.250
  -3575109.842 6  -2785799.628 6  22015680.680    22015687.574          15.000
        16.250
   3807556.974 6   2966926.380 6  21452572.219    21452579.082          16.500
        18.000
   8839291.792 3   6887754.474 5  24672962.414    24672970.777           5.750
         6.500
 97 10  3 17 14  0.0000000  0  6G 1G21G23G 3G17G26
  -5230146.596 5  -4075434.265 6  23098119.977    23098127.543          10.750
        12.250
  -1894303.790 6  -1450947.299 6  21483917.836    21483924.668          17.750
        19.500
   3332246.478 6   2596555.197 6  21358672.805    21358679.516          17.750
        20.250
  -3580796.785 6  -2790231.019 6  22014598.703    22014605.355          15.250
        16.250
   3844346.779 6   2995593.739 6  21459572.984    21459579.957          16.500
        18.000
   8905696.536 3   6939498.395 5  24685598.672    24685607.082           5.750
         6.500
 97 10  3 17 14 15.0000000  0  5G 1G21G23G 3G17
  -5265276.675 5  -4102808.318 6  23091434.844    23091442.332          10.750
        12.000
  -1893884.669 6  -1450620.704 6  21483997.648    21484004.461          17.750
        19.250
   3363841.836 6   2621174.942 6  21364685.305    21364692.000          17.750
        20.000
  -3586304.112 6  -2794522.441 6  22013550.602    22013557.328          15.250
        16.250
   3881259.328 6   3024356.758 6  21466597.305    21466604.227          16.500
        18.000
 97 10  3 17 14 30.0000000  0  5G 1G21G23G 3G17
  -5300312.423 5  -4130108.872 6  23084767.727    23084775.355          11.000
        12.250
  -1893370.437 6  -1450220.004 6  21484095.563    21484102.371          17.750
        19.250
   3395525.164 6   2645863.240 6  21370714.461    21370721.168          17.750
        20.250
  -3591631.305 6  -2798673.508 6  22012536.773    22012543.539          15.250
        16.250
   3918296.038 6   3053216.520 6  21473645.180    21473652.113          16.500
        18.000
 97 10  3 17 14 45.0000000  0  5G 1G21G23G 3G17
  -5335259.616 5  -4157340.416 6  23078117.648    23078125.004          10.750
        12.250
  -1892763.830 6  -1449747.315 6  21484210.984    21484217.727          18.000
        19.250
   3427292.900 6   2670617.312 6  21376759.727    21376766.359          17.750
        20.000
  -3596781.205 6  -2802686.417 6  22011556.766    22011563.520          15.250
        16.250
   3955453.583 6   3082170.439 6  21480716.109    21480722.934          16.500
        18.000
 97 10  3 17 15  0.0000000  0  6G 1G 9G21G23G 3G17
  -5370117.630 5  -4184502.466 6  23071484.297    23071491.703          10.750
        12.250
     -1574.24913     -1227.60515  24298855.859    24298864.500           5.500
         5.750
  -1892060.377 6  -1449199.168 6  21484344.852    21484351.594          18.000
        19.250
   3459144.497 6   2695436.732 6  21382820.852    21382827.555          17.750
        20.000
  -3601751.257 6  -2806559.185 6  22010611.258    22010617.855          15.250
        16.250
   3992735.783 6   3111221.492 6  21487810.555    21487817.609          16.750
        17.750
 97 10  3 17 15 15.0000000  0  6G 1G 9G21G23G 3G17
  -5404882.104 5  -4211591.640 6  23064868.727    23064876.223          10.750
        12.250
     -6203.412 3     -4834.728 5  24297974.906    24297983.813           5.500
         5.750
  -1891259.725 6  -1448575.286 6  21484497.125    21484503.977          17.750
        19.250
   3491076.963 6   2720319.162 6  21388897.359    21388903.926          17.750
        20.000
  -3606541.906 6  -2810292.166 6  22009699.445    22009706.156          15.250
        16.250
   4030145.553 6   3140371.946 6  21494929.406    21494936.441          16.750
        17.750
 97 10  3 17 15 30.0000000  0  6G 1G 9G21G23G 3G17
  -5439553.906 5  -4238608.594 6  23058270.852    23058278.180          10.750
        12.250
    -10693.750 3     -8333.655 5  24297120.398    24297129.430           5.500
         5.750
  -1890364.743 6  -1447877.891 6  21484667.438    21484674.250          17.750
        19.500
   3523086.604 6   2745261.731 6  21394988.469    21394995.145          17.750
        20.000
  -3611155.642 6  -2813887.286 6  22008821.500    22008828.195          15.250
        16.250
   4067678.578 6   3169618.445 6  21502071.734    21502078.680          16.500
        17.750
 97 10  3 17 15 45.0000000  0  6G 1G 9G21G23G 3G17
  -5474134.762 5  -4265554.685 6  23051690.250    23051697.570          10.750
        12.250
    -15048.771 3    -11727.147 5  24296291.563    24296300.582           5.500
         5.750
  -1889374.803 6  -1447106.508 6  21484855.852    21484862.625          17.750
        19.250
   3555169.411 6   2770261.311 6  21401093.680    21401100.453          17.750
        20.000
  -3615595.559 6  -2817346.960 6  22007976.602    22007983.227          15.250
        16.250
   4105331.240 6   3198958.171 6  21509236.813    21509243.785          16.500
        17.750
 97 10  3 17 16  0.0000000  0  6G 1G 9G21G23G 3G17
  -5508617.292 5  -4292424.165 6  23045128.273    23045135.922          10.750
        12.250
    -19260.140 3    -15008.691 5  24295490.109    24295499.117           5.500
         6.000
  -1888282.207 6  -1446255.132 6  21485063.766    21485070.551          17.750
        19.250
   3587331.265 6   2795322.486 6  21407213.922    21407220.672          17.750
        20.000
  -3619854.569 6  -2820665.670 6  22007166.016    22007172.664          15.250
        16.250
   4143111.952 6   3228397.670 6  21516426.320    21516433.332          16.500
        17.750
 97 10  3 17 16 15.0010000  0  5G 1G21G23G 3G17
  -5543012.436 5  -4319225.549 6  23038583.200    23038590.665          10.750
        12.250
  -1887096.791 6  -1445331.437 6  21485289.435    21485296.110          18.000
        19.250
   3619565.050 6   2820439.714 6  21413347.669    21413354.392          17.750
        20.000
  -3623941.106 6  -2823849.995 6  22006388.388    22006395.005          15.250
        16.250
   4181016.947 6   3257934.018 6  21523639.310    21523646.317          16.500
        17.750
 97 10  3 17 16 30.0010000  0  6G 1G 9G21G23G 3G17
  -5577310.373 5  -4345951.188 6  23032056.599    23032064.063          10.750
        12.250
     -2875.065 3     -2240.43015  24293965.560    24293974.079           5.500
         5.750
  -1885819.488 6  -1444336.130 6  21485532.466    21485539.149          18.000
        19.250
   3651869.149 6   2845611.727 6  21419495.052    21419501.735          17.750
        20.000
  -3627850.768 6  -2826896.476 6  22005644.356    22005651.024          15.250
        16.250
   4219046.631 6   3287567.529 6  21530876.138    21530883.005          16.500
        17.750
 97 10  3 17 16 45.0010000  0  6G 1G 9G21G23G 3G17
  -5611508.835 5  -4372599.315 6  23025548.653    23025556.466          10.750
        12.250
     -6675.885 3     -5202.067 5  24293242.310    24293250.950           5.500
         5.750
  -1884452.796 6  -1443271.178 6  21485792.528    21485799.271          18.000
        19.250
   3684249.848 6   2870843.433 6  21425656.935    21425663.618          17.750
        20.000
  -3631584.559 6  -2829805.923 6  22004933.810    22004940.442          15.500
        16.250
   4257202.242 6   3317299.156 6  21538136.903    21538143.755          16.500
        17.500
 97 10  3 17 17  0.0010000  0  6G 1G 9G21G23G 3G17
  -5645603.520 5  -4399166.567 6  23019060.630    23019068.388          10.750
        12.250
    -10337.876 3     -8055.529 5  24292545.396    24292553.786           5.500
         5.500
  -1882996.232 6  -1442136.192 6  21486069.692    21486076.313          18.000
        19.250
   3716709.170 6   2896136.400 6  21431833.716    21431840.380          17.750
        19.750
  -3635144.004 6  -2832579.523 6  22004256.622    22004263.235          15.750
        16.250
   4295484.474 6   3347129.454 6  21545421.833    21545428.759          16.250
        17.500
 97 10  3 17 17 15.0010000  0  6G 1G 9G21G23G 3G17
  -5679594.790 5  -4425653.249 6  23012592.380    23012599.888          10.750
        12.250
    -13865.397 3    -10804.194 5  24291874.192    24291882.610           5.750
         5.750
  -1881457.345 6  -1440937.061 6  21486362.427    21486369.060          18.000
        19.250
   3749239.888 6   2921485.003 6  21438024.122    21438030.759          17.750
        19.750
  -3638535.638 6  -2835222.360 6  22003611.317    22003617.817          15.750
        16.250
   4333887.777 6   3377054.093 6  21552729.716    21552736.665          16.250
        17.500
 97 10  3 17 17 30.0010000  0  6G 1G 9G21G23G 3G17
  -5713477.333 5  -4452055.219 6  23006144.646    23006152.419          11.000
        12.500
    -17254.958 3    -13445.364 5  24291229.177    24291237.813           5.750
         6.000
  -1879832.635 6  -1439671.055 6  21486671.724    21486678.415          18.000
        19.250
   3781850.466 6   2946895.827 6  21444229.622    21444236.372          17.750
        19.750
  -3641753.719 6  -2837729.952 6  22002998.966    22003005.474          15.750
        16.000
   4372413.102 6   3407073.811 6  21560060.786    21560067.817          16.250
        17.500
 97 10  3 17 17 45.0010000  0  6G 1G 9G21G23G 3G17
  -5747251.710 5  -4478372.885 6  22999717.661    22999725.376          10.750
        12.500
    -20503.143 3    -15976.355 5  24290611.099    24290619.700           5.750
         5.750
  -1878117.323 6  -1438334.442 6  21486998.255    21487004.884          18.000
        19.250
   3814545.684 6   2972372.612 6  21450451.411    21450458.106          18.000
        19.750
  -3644797.277 6  -2840101.557 6  22002419.669    22002426.200          15.750
        16.000
   4411059.832 6   3437188.130 6  21567415.192    21567422.134          16.250
        17.500
 97 10  3 17 18  0.0010000  0  6G 1G 9G21G23G 3G17
  -5780922.751 5  -4504610.044 6  22993310.286    22993317.974          11.000
        12.500
    -23612.297 3    -18399.033 5  24290019.208    24290027.759           5.750
         5.750
  -1876313.642 6  -1436928.986 6  21487341.372    21487347.978          18.000
        19.250
   3847325.553 6   2997915.363 6  21456689.169    21456695.899          17.750
        19.750
  -3647668.204 6  -2842338.648 6  22001873.403    22001880.056          15.500
        16.000
   4449826.097 6   3467395.599 6  21574792.208    21574799.165          16.500
        17.500
 97 10  3 17 18 15.0010000  0  6G 1G 9G21G23G 3G17
  -5814491.645 5  -4530767.594 6  22986922.216    22986930.079          11.000
        12.750
    -26584.396 3    -20714.907 5  24289453.606    24289462.290           5.750
         5.750
  -1874426.423 6  -1435458.427 6  21487700.497    21487707.231          18.000
        19.250
   3880187.719 6   3023522.240 6  21462942.888    21462949.497          18.000
        19.750
  -3650364.743 6  -2844439.846 6  22001360.091    22001366.845          15.250
        16.000
   4488708.310 6   3497693.412 6  21582191.161    21582198.228          16.250
        17.500
 97 10  3 17 18 30.0010000  0  6G 1G 9G21G23G 3G17
  -5847956.497 5  -4556844.087 6  22980553.974    22980561.771          11.000
        12.750
    -29419.700 3    -22924.195 5  24288914.067    24288922.591           5.750
         6.000
  -1872455.293 6  -1433922.481 6  21488075.341    21488082.263          18.000
        19.250
   3913134.032 6   3049194.685 6  21469212.208    21469218.946          18.000
        19.750
  -3652884.716 6  -2846403.461 6  22000880.731    22000887.431          15.250
        16.250
   4527704.631 6   3528080.138 6  21589611.981    21589619.024          16.250
        17.500
 97 10  3 17 18 45.0010000  0  6G 1G 9G21G23G 3G17
  -5881315.680 5  -4582838.231 6  22974206.021    22974213.657          11.000
        13.000
    -32117.511 3    -25026.322 5  24288400.755    24288409.372           6.000
         6.000
  -1870397.242 6  -1432318.808 6  21488467.161    21488473.985          18.000
        19.250
   3946165.267 6   3074933.298 6  21475497.856    21475504.501          18.000
        19.750
  -3655226.396 6  -2848228.148 6  22000434.911    22000441.634          15.250
        16.250
   4566815.773 6   3558556.350 6  21597054.599    21597061.583          16.250
        17.500
 97 10  3 17 19  0.0010000  0  6G 1G 9G21G23G 3G17
  -5914562.701 5  -4608744.971 6  22967879.349    22967886.923          11.000
        13.000
    -34667.848 3    -27013.568 5  24287915.067    24287923.919           5.750
         6.000
  -1868239.443 6  -1430637.403 6  21488877.724    21488884.599          18.000
        19.250
   3979285.702 6   3100741.423 6  21481800.536    21481807.278          18.000
        20.000
  -3657383.558 6  -2849909.051 6  22000024.599    22000031.212          15.500
        16.250
   4606049.194 6   3589127.831 6  21604520.497    21604527.618          16.250
        17.500
 97 10  3 17 19 15.0010000  0  6G 1G 9G21G23G 3G17
  -5947711.616 5  -4634575.272 6  22961571.364    22961578.798          11.250
        13.000
    -37081.653 3    -28894.403 5  24287455.950    24287464.708           5.750
         6.000
  -1865987.409 6  -1428882.578 6  21489306.411    21489313.200          18.000
        19.250
   4012482.276 6   3126608.873 6  21488117.614    21488124.247          18.000
        19.750
  -3659363.251 6  -2851451.675 6  21999647.935    21999654.505          15.750
        16.250
   4645395.612 6   3619787.367 6  21612007.872    21612014.821          16.250
        17.500
 97 10  3 17 19 30.0010000  0  6G 1G 9G21G23G 3G17
  -5980763.042 5  -4660329.600 6  22955282.005    22955289.454          11.250
        13.250
    -39357.502 3    -30667.747 5  24287022.435    24287031.509           6.000
         6.000
  -1863638.434 6  -1427052.210 6  21489753.380    21489760.216          18.000
        19.250
   4045759.356 6   3152539.054 6  21494450.099    21494456.700          18.250
        19.750
  -3661158.725 6  -2852850.747 6  21999306.356    21999312.880          15.500
        16.250
   4684858.701 6   3650537.810 6  21619517.333    21619524.372          16.250
        17.500
 97 10  3 17 19 45.0010000  0  6G 1G 9G21G23G 3G17
  -6013721.872 5  -4686011.792 6  22949010.083    22949017.474          11.250
        13.250
    -41497.640 3    -32335.345 5  24286615.333    24286623.954           6.000
         6.000
  -1861193.261 6  -1425146.881 6  21490218.606    21490225.407          18.000
        19.250
   4079115.952 6   3178531.199 6  21500797.646    21500804.173          18.250
        19.750
  -3662773.010 6  -2854108.635 6  21998999.239    21999005.630          15.750
        16.000
   4724437.729 6   3681378.602 6  21627048.958    21627056.052          16.000
        17.000
 97 10  3 17 20  0.0010000  0  6G 1G 9G21G23G 3G17
  -6046590.127 5  -4711623.396 6  22942755.356    22942762.817          11.500
        13.500
    -43507.382 3    -33901.338 5  24286232.771    24286241.337           6.000
         6.000
  -1858656.170 6  -1423169.932 6  21490701.544    21490708.181          18.000
        19.250
   4112546.625 6   3204581.065 6  21507159.286    21507166.017          18.250
        19.750
  -3664209.589 6  -2855228.050 6  21998725.755    21998732.399          15.750
        16.250
   4764133.602 6   3712310.439 6  21634602.966    21634609.919          16.000
        17.000
 97 10  3 17 20 15.0010000  0  6G 1G 9G21G23G 3G17
  -6079361.278 5  -4737159.343 6  22936519.114    22936526.556          11.500
        13.250
    -45381.380 4    -35361.555 5  24285876.325    24285884.622           6.250
         6.000
  -1856024.911 6  -1421119.604 6  21491202.278    21491208.833          18.000
        19.250
   4146052.449 6   3230689.491 6  21513535.372    21513541.872          18.250
        19.750
  -3665460.185 6  -2856202.545 6  21998487.739    21998494.345          15.750
        16.250
   4803952.828 6   3743338.385 6  21642180.263    21642187.298          16.000
        17.000
 97 10  3 17 20 30.0010000  0  6G 1G 9G21G23G 3G17
  -6112034.815 5  -4762619.218 6  22930301.521    22930308.970          11.750
        13.250
    -47119.089 4    -36715.570 5  24285545.810    24285554.130           6.250
         6.000
  -1853299.485 6  -1418995.893 6  21491720.919    21491727.642          18.000
        19.250
   4179630.736 6   3256854.383 6  21519925.067    21519931.665          18.250
        19.750
  -3666528.375 6  -2857034.902 6  21998284.380    21998291.048          15.750
        16.250
   4843895.339 6   3774462.413 6  21649781.083    21649788.021          16.000
        17.000
 97 10  3 17 20 45.0010000  0  6G 1G 9G21G23G 3G17
  -6144611.073 5  -4788003.288 6  22924102.317    22924109.876          11.500
        13.250
    -48719.177 4    -37962.354 5  24285241.294    24285250.024           6.500
         6.000
  -1850476.135 6  -1416795.886 6  21492258.177    21492264.802          18.000
        19.250
   4213282.477 6   3283076.504 6  21526328.817    21526335.208          18.250
        19.500
  -3667417.752 6  -2857727.928 6  21998115.106    21998121.810          15.750
        16.250
   4883964.319 6   3805684.992 6  21657405.935    21657412.841          15.750
        17.000
 97 10  3 17 21  0.0010000  0  6G 1G 9G21G23G 3G17
  -6177091.036 5  -4813312.336 6  22917921.614    22917929.157          11.500
        13.250
    -50181.785 4    -39101.997 5  24284963.060    24284971.290           6.500
         6.000
  -1847555.499 6  -1414520.068 6  21492813.872    21492820.587          18.000
        19.250
   4247007.208 6   3309355.511 6  21532746.356    21532752.907          18.500
        19.750
  -3668130.937 6  -2858283.659 6  21997979.349    21997986.142          15.750
        16.250
   4924157.166 6   3837004.076 6  21665054.341    21665061.208          16.000
        17.000
 97 10  3 17 21 15.0010000  0  6G 1G 9G21G23G 3G17
  -6209474.641 5  -4838546.297 6  22911759.224    22911766.653          11.750
        13.250
    -51511.650 4    -40138.230 5  24284709.739    24284718.364           6.500
         6.250
  -1844540.766 6  -1412170.923 6  21493387.544    21493394.259          18.000
        19.250
   4280805.634 6   3335691.937 6  21539178.052    21539184.517          18.250
        19.750
  -3668667.482 6  -2858701.747 6  21997877.356    21997883.884          15.750
        16.500
   4964469.737 6   3868416.455 6  21672725.575    21672732.552          15.750
        17.000
 97 10  3 17 21 30.0010000  0  6G 1G 9G21G23G 3G17
  -6241757.717 5  -4863701.917 6  22905615.794    22905623.454          11.750
        13.250
    -52707.955 4    -41070.395 5  24284481.958    24284490.673           6.500
         6.500
  -1841433.037 6  -1409749.315 6  21493978.903    21493985.563          18.000
        19.250
   4314682.405 6   3362089.415 6  21545624.567    21545631.188          18.500
        19.750
  -3669024.648 6  -2858980.060 6  21997809.497    21997815.962          15.750
        16.250
   5004904.222 6   3899923.840 6  21680419.950    21680427.017          15.750
        17.000
 97 10  3 17 21 45.0010000  0  6G 1G 9G21G23G 3G17
  -6273942.633 5  -4888781.048 6  22899491.411    22899498.985          11.750
        13.250
    -53771.625 4    -41899.207 5  24284279.896    24284288.372           6.250
         6.500
  -1838238.709 6  -1407260.230 6  21494586.880    21494593.493          18.000
        19.250
   4348634.092 6   3388545.266 6  21552085.271    21552091.798          18.250
        19.750
  -3669210.467 6  -2859124.859 6  21997774.146    21997780.833          16.000
        16.500
   5045456.597 6   3931523.083 6  21688136.927    21688143.915          16.000
        17.000
 97 10  3 17 22  0.0010000  0  6G 1G 9G21G23G 3G17
  -6306023.064 6  -4913778.765 6  22893386.692    22893394.204          12.000
        13.250
    -54699.102 3    -42621.890 5  24284102.802    24284112.208           6.000
         6.500
  -1834953.624 6  -1404700.427 6  21495211.880    21495218.681          18.000
        19.250
   4382661.110 6   3415059.818 6  21558560.349    21558567.028          18.250
        19.750
  -3669221.483 6  -2859133.448 6  21997772.263    21997778.767          16.000
        16.500
   5086128.798 6   3963215.689 6  21695876.653    21695883.704          15.750
        17.000
 97 10  3 17 22 15.0010000  0  6G 1G 9G21G23G 3G17
  -6337997.936 6  -4938694.233 6  22887302.044    22887309.536          12.000
        13.250
    -55488.909 4    -43237.289 5  24283952.505    24283961.563           6.250
         6.500
  -1831580.022 6  -1402071.649 6  21495853.888    21495860.720          18.000
        19.250
   4416763.539 6   3441633.131 6  21565049.880    21565056.493          18.250
        19.500
  -3669053.595 6  -2859002.628 6  21997804.067    21997810.595          16.000
        16.500
   5126920.135 6   3995001.137 6  21703639.075    21703645.954          15.750
        17.000
 97 10  3 17 22 30.0010000  0  6G 1G 9G21G23G 3G17
  -6369868.286 6  -4963528.244 6  22881237.505    22881244.817          12.250
        13.250
    -56137.437 4    -43742.635 5  24283829.067    24283838.013           6.250
         6.500
  -1828117.443 6  -1399373.539 6  21496512.810    21496519.704          18.000
        19.500
   4450943.717 6   3468267.033 6  21571554.185    21571560.853          18.250
        19.500
  -3668706.039 6  -2858731.808 6  21997870.091    21997876.579          15.750
        16.250
   5167831.083 6   4026879.790 6  21711424.161    21711431.185          16.000
        17.000
 97 10  3 17 22 45.0010000  0  6G 1G 9G21G23G 3G17
  -6401637.668 6  -4988283.589 6  22875191.841    22875199.325          12.250
        13.500
    -56648.790 4    -44141.075 5  24283731.942    24283740.806           6.250
         6.500
  -1824567.278 6  -1396607.171 6  21497188.310    21497195.181          18.000
        19.250
   4485203.540 6   3494962.984 6  21578073.591    21578080.310          18.250
        19.750
  -3668182.941 6  -2858324.192 6  21997969.575    21997976.200          15.750
        16.250
   5208860.823 6   4058851.001 6  21719231.880    21719238.903          15.750
        17.000
 97 10  3 17 23  0.0010000  0  6G 1G 9G21G23G 3G17
  -6433306.803 6  -5012960.819 6  22869165.630    22869172.911          12.250
        13.500
    -57024.672 4    -44433.955 5  24283660.396    24283668.966           6.250
         6.500
  -1820931.005 6  -1393773.717 6  21497880.302    21497887.110          18.000
        19.500
   4519544.184 6   3521721.913 6  21584608.419    21584615.056          18.250
        19.750
  -3667479.120 6  -2857775.771 6  21998103.544    21998110.153          15.750
        16.250
   5250006.647 6   4090912.669 6  21727061.630    21727068.739          15.750
        17.000
 97 10  3 17 23 15.0010000  0  6G 1G 9G21G23G 3G17
  -6464877.937 6  -5037561.679 6  22863157.739    22863165.196          12.250
        13.500
    -57267.321 4    -44623.048 5  24283614.427    24283622.810           6.500
         6.500
  -1817212.064 6  -1390875.841 6  21498588.005    21498594.794          18.000
        19.500
   4553961.376 6   3548540.497 6  21591157.708    21591164.407          18.000
        19.750
  -3666594.041 6  -2857086.101 6  21998271.974    21998278.606          15.750
        16.500
   5291266.681 6   4123063.331 6  21734913.114    21734920.079          15.750
        17.000
 97 10  3 17 23 30.0010000  0  6G 1G 9G21G23G 3G17
  -6496350.909 6  -5062086.048 6  22857168.521    22857175.802          12.250
        13.250
    -57373.596 4    -44705.838 5  24283594.364    24283602.630           7.000
         6.750
  -1813409.495 6  -1387912.801 6  21499311.567    21499318.282          18.000
        19.500
   4588455.202 6   3575418.795 6  21597721.739    21597728.552          18.000
        19.750
  -3665525.906 6  -2856253.785 6  21998475.192    21998481.849          15.750
        16.500
   5332645.960 6   4155306.905 6  21742787.333    21742794.462          15.500
        17.000
 97 10  3 17 23 45.0010000  0  6G 1G 9G21G23G 3G17
  -6527725.130 6  -5086533.472 6  22851198.286    22851205.634          12.250
        13.250
    -57338.351 4    -44678.392 5  24283600.927    24283609.431           6.500
         6.750
  -1809523.791 6  -1384884.984 6  21500051.013    21500057.767          18.000
        19.500
   4623023.589 6   3602355.193 6  21604299.771    21604306.556          18.000
        19.750
  -3664276.130 6  -2855279.936 6  21998713.169    21998719.813          15.750
        16.250
   5374147.011 6   4187645.384 6  21750684.731    21750691.911          15.750
        17.000
 97 10  3 17 24  0.0010000  0  6G 1G 9G21G23G 3G17
  -6558998.535 6  -5110902.341 6  22845247.208    22845254.579          12.500
        13.750
    -57162.585 4    -44541.420 5  24283634.216    24283642.638           6.500
         6.750
  -1805553.614 6  -1381791.340 6  21500806.497    21500813.224          18.000
        19.250
   4657664.103 6   3629347.789 6  21610891.731    21610898.438          18.000
        19.750
  -3662842.704 6  -2854162.985 6  21998985.896    21998992.517          16.000
        16.500
   5415769.122 6   4220078.179 6  21758605.169    21758612.243          15.750
        17.000
 97 10  3 17 24 15.0010000  0  6G 1G 9G21G23G 3G17
  -6590167.479 6  -5135189.802 6  22839315.692    22839323.106          12.250
        13.750
    -56846.076 4    -44294.789 5  24283694.466    24283703.079           6.500
         6.750
  -1801499.462 6  -1378632.253 6  21501577.935    21501584.771          18.000
        19.250
   4692380.385 6   3656399.432 6  21617497.919    21617504.735          18.000
        19.750
  -3661221.985 6  -2852900.088 6  21999294.263    21999300.946          16.000
        16.500
   5457514.058 6   4252606.696 6  21766548.935    21766556.247          15.750
        17.000
 97 10  3 17 24 30.0010000  0  6G 1G 9G21G23G 3G17
  -6621234.029 6  -5159397.479 6  22833404.028    22833411.306          12.250
        14.000
    -56389.598 4    -43939.102 5  24283781.474    24283790.087           6.500
         6.750
  -1797360.999 6  -1375407.483 6  21502365.489    21502372.282          18.000
        19.250
   4727171.197 6   3683509.143 6  21624118.638    21624125.306          18.000
        19.750
  -3659419.251 6  -2851495.360 6  21999637.208    21999643.853          16.000
        16.500
   5499381.052 6   4285230.305 6  21774516.083    21774523.161          15.750
        17.000
 97 10  3 17 24 45.0010000  0  6G 1G 9G21G23G 3G17
  -6652196.430 6  -5183524.005 6  22827512.099    22827519.438          12.500
        13.750
    -55792.803 4    -43474.066 5  24283894.778    24283903.630           6.500
         7.000
  -1793135.598 6  -1372114.960 6  21503169.544    21503176.356          18.000
        19.250
   4762035.049 6   3710675.772 6  21630752.888    21630759.618          18.250
        19.750
  -3657438.968 6  -2849952.281 6  22000014.106    22000020.806          16.000
        16.500
   5541369.593 6   4317948.643 6  21782506.185    21782513.313          15.750
        17.000
 97 10  3 17 25  0.0010000  0  6G 1G 9G21G23G 3G17
  -6683056.454 6  -5207570.764 6  22821639.583    22821646.817          12.250
        13.750
    -55059.697 4    -42902.835 5  24284034.208    24284043.196           6.250
         7.250
  -1788825.011 6  -1368756.057 6  21503989.856    21503996.618          18.000
        19.250
   4796965.402 6   3737894.222 6  21637400.021    21637406.853          18.000
        19.500
  -3655285.697 6  -2848274.414 6  22000424.005    22000430.653          16.000
        16.500
   5583473.632 6   4350756.967 6  21790518.427    21790525.642          15.500
        17.000
 97 10  3 17 25 15.0010000  0  6G 1G 9G21G23G 3G17
  -6713804.352 6  -5231530.142 6  22815788.388    22815795.669          12.500
        14.000
    -54179.186 4    -42216.725 5  24284201.919    24284210.817           6.250
         7.250
  -1784422.037 6  -1365325.166 6  21504827.763    21504834.505          18.000
        19.250
   4831966.526 6   3765167.812 6  21644060.349    21644067.192          18.000
        19.750
  -3652952.930 6  -2846456.666 6  22000867.786    22000874.423          16.000
        16.500
   5625699.672 6   4383660.361 6  21798553.677    21798560.696          15.500
        16.750
 97 10  3 17 25 30.0010000  0  6G 1G 9G21G23G 3G17
  -6744437.284 6  -5255399.938 6  22809958.864    22809966.345          12.250
        14.000
    -53149.367 4    -41414.286 5  24284398.146    24284406.626           6.500
         7.250
  -1779926.871 6  -1361822.444 6  21505683.106    21505689.919          18.000
        19.250
   4867038.315 6   3792496.467 6  21650734.380    21650741.146          18.000
        19.500
  -3650445.226 6  -2844502.611 6  22001344.966    22001351.653          16.250
        16.750
   5668051.490 6   4416661.770 6  21806612.950    21806620.013          15.750
        16.750
 97 10  3 17 25 45.0010000  0  6G 1G 9G21G23G 3G17
  -6774957.715 6  -5279182.068 6  22804151.075    22804158.509          12.250
        14.000
    -51975.904 4    -40499.893 5  24284621.122    24284630.114           6.500
         7.500
  -1775344.428 6  -1358251.698 6  21506555.146    21506561.981          18.000
        19.250
   4902176.867 6   3819877.158 6  21657420.966    21657427.802          17.750
        19.750
  -3647768.675 6  -2842416.976 6  22001854.388    22001860.989          16.250
        16.500
   5710521.983 6   4449755.653 6  21814695.013    21814701.833          15.750
        16.500
 97 10  3 17 26  0.0010000  0  6G 1G 9G21G23G 3G17
  -6805365.948 6  -5302876.773 6  22798364.544    22798371.903          12.250
        14.250
    -50658.911 4    -39473.682 5  24284872.052    24284880.661           6.500
         7.750
  -1770672.597 6  -1354611.305 6  21507444.208    21507450.856          18.250
        19.250
   4937382.928 6   3847310.444 6  21664120.442    21664127.364          17.750
        19.750
  -3644922.636 6  -2840199.285 6  22002395.833    22002402.505          16.250
        16.500
   5753111.207 6   4482942.043 6  21822799.396    21822806.364          15.500
        16.750
 97 10  3 17 26 15.0010000  0  6G 1G 9G21G23G 3G17
  -6835673.875 6  -5326493.308 6  22792597.146    22792604.333          12.250
        14.000
    -49207.183 4    -38342.464 5  24285148.231    24285156.942           6.750
         7.750
  -1765922.269 6  -1350909.750 6  21508348.333    21508354.923          18.250
        19.250
   4972649.119 6   3874790.579 6  21670831.489    21670838.235          18.000
        19.500
  -3641914.942 6  -2837855.624 6  22002968.263    22002974.759          16.250
        16.500
   5795809.115 6   4516213.127 6  21830924.614    21830931.442          15.750
        16.250
 97 10  3 17 26 30.0010000  0  6G 1G 9G21G23G 3G17
  -6865876.124 6  -5350027.510 6  22786849.974    22786857.302          12.500
        14.250
    -47609.502 4    -37097.507 5  24285452.341    24285460.907           6.750
         7.000
  -1761085.914 6  -1347141.160 6  21509268.528    21509275.110          18.000
        19.250
   5007983.626 6   3902323.959 6  21677555.271    21677562.188          18.000
        19.750
  -3638738.451 6  -2835380.443 6  22003572.685    22003579.251          16.250
        16.500
   5838622.904 6   4549574.510 6  21839071.716    21839078.747          15.500
        16.500
 97 10  3 17 26 45.0010000  0  7G 1G 9G21G31G23G 3G17
  -6895974.364 6  -5373480.668 6  22781122.317    22781129.610          12.250
        14.000
    -45864.899 4    -35738.094 5  24285784.286    24285793.181           6.750
         7.500
  -1756164.889 6  -1343306.595 6  21510204.997    21510211.728          18.250
        19.250
     -3125.63613     -2435.44515  24425425.138    24425432.751           5.250
         6.000
   5043384.379 6   3929908.945 6  21684291.958    21684298.728          18.250
        19.750
  -3635392.853 6  -2832773.484 6  22004209.388    22004215.981          16.000
        16.500
   5881549.612 6   4583023.879 6  21847240.356    21847247.591          15.250
        16.500
 97 10  3 17 27  0.0010000  0  7G 1G 9G21G31G23G 3G17
  -6925970.344 6  -5396854.143 6  22775414.231    22775421.591          12.500
        14.000
    -43976.389 4    -34266.538 5  24286143.708    24286152.579           6.750
         7.500
  -1751163.298 6  -1339409.255 6  21511156.786    21511163.595          18.000
        19.250
    -26507.703 3    -20655.211 5  24420975.849    24420983.630           5.500
         6.000
   5078851.859 6   3957545.937 6  21691041.255    21691048.024          18.000
        19.500
  -3631877.256 6  -2830034.059 6  22004878.310    22004884.962          16.250
        16.500
   5924587.547 6   4616559.919 6  21855430.341    21855437.396          15.500
        16.500
 97 10  3 17 27 15.0010000  0  7G 1G 9G21G31G23G 3G17
  -6955860.239 6  -5420144.944 6  22769726.310    22769733.833          12.250
        14.250
    -41940.553 4    -32680.195 5  24286530.997    24286539.935           6.750
         7.500
  -1746079.772 6  -1335448.063 6  21512124.099    21512130.810          17.750
        19.250
    -49760.890 3    -38774.562 5  24416550.575    24416558.466           5.000
         6.000
   5114390.851 6   3985238.644 6  21697804.021    21697810.712          18.250
        19.500
  -3628185.551 6  -2827157.410 6  22005580.935    22005587.560          16.250
        16.750
   5967739.122 6   4650184.504 6  21863641.786    21863648.845          15.250
        16.500
 97 10  3 17 27 30.0010000  0  7G 1G 9G21G31G23G 3G17
  -6985647.858 6  -5443356.062 6  22764057.974    22764065.571          12.500
        14.250
    -39759.748 4    -30980.850 5  24286946.036    24286954.853           7.000
         7.250
  -1740918.107 6  -1331425.987 6  21513106.247    21513113.099          17.750
        19.250
    -72885.688 3    -56793.866 5  24412150.606    24412157.946           5.250
         6.250
   5150000.297 6   4012986.256 6  21704580.396    21704587.138          18.000
        19.500
  -3624317.924 6  -2824143.680 6  22006316.997    22006323.556          16.250
        16.500
   6011003.858 6   4683897.258 6  21871874.810    21871881.942          15.750
        16.500
 97 10  3 17 27 45.0010000  0  7G 1G 9G21G31G23G 3G17
  -7015338.996 6  -5466491.999 6  22758407.989    22758415.372          12.500
        14.250
    -37442.142 4    -29174.924 5  24287386.903    24287395.833           6.500
         7.500
  -1735682.607 6  -1327346.380 6  21514102.552    21514109.310          17.750
        19.250
    -95888.917 3    -74718.465 5  24407772.888    24407780.724           5.750
         6.500
   5185676.749 6   4040786.077 6  21711369.450    21711376.161          18.250
        19.500
  -3620279.218 6  -2820996.634 6  22007085.450    22007092.032          16.250
        16.500
   6054375.557 6   4717693.375 6  21880128.177    21880135.317          15.250
        16.500
 97 10  3 17 28  0.0010000  0  7G 1G 9G21G31G23G 3G17
  -7044929.909 6  -5489549.836 6  22752776.747    22752784.349          12.750
        14.250
    -34981.794 4    -27257.763 5  24287855.192    24287863.864           6.500
         7.500
  -1730367.359 6  -1323204.627 6  21515113.950    21515120.657          17.750
        19.250
   -118765.169 3    -92544.088 5  24403419.755    24403427.552           5.750
         6.250
   5221424.842 6   4068641.726 6  21718172.021    21718178.841          18.000
        19.500
  -3616061.288 6  -2817709.928 6  22007888.185    22007894.595          16.000
        16.500
   6097858.301 6   4751576.023 6  21888402.778    21888409.798          15.500
        16.500
 97 10  3 17 28 15.0010000  0  7G 1G 9G21G31G23G 3G17
  -7074420.991 6  -5512529.892 6  22747165.130    22747172.411          13.000
        14.500
    -32377.558 4    -25228.484 5  24288350.685    24288359.462           6.750
         7.500
  -1724974.629 6  -1319002.506 6  21516140.146    21516146.962          17.750
        19.250
   -141515.096 3   -110271.322 5  24399090.638    24399098.419           6.000
         6.250
   5257244.821 6   4096553.376 6  21724988.372    21724995.060          18.250
        19.500
  -3611663.535 6  -2814283.121 6  22008725.036    22008731.606          16.500
        16.750
   6141451.371 6   4785544.622 6  21896698.122    21896705.333          15.250
        16.750
 97 10  3 17 28 30.0010000  0  7G 1G 9G21G31G23G 3G17
  -7103808.798 6  -5535429.464 6  22741572.669    22741580.216          13.000
        14.750
    -29630.581 4    -23087.999 5  24288873.083    24288882.142           6.750
         7.500
  -1719502.993 6  -1314738.891 6  21517181.364    21517188.220          17.750
        19.250
   -164140.587 3   -127901.555 5  24394785.239    24394792.864           5.750
         6.250
   5293135.760 6   4124520.338 6  21731818.091    21731824.896          18.000
        19.250
  -3607086.656 6  -2810716.720 6  22009595.880    22009602.466          16.250
        16.500
   6185155.066 6   4819599.443 6  21905014.700    21905021.888          15.250
        16.750
 97 10  3 17 28 45.0010000  0  7G 1G 9G21G31G23G 3G17
  -7133091.018 6  -5558246.756 6  22736000.216    22736007.849          12.750
        14.750
    -26743.005 4    -20837.925 5  24289422.685    24289431.927           6.500
         7.750
  -1713947.464 6  -1310409.908 6  21518238.630    21518245.356          17.750
        19.250
   -186644.536 3   -145437.098 5  24390502.669    24390510.599           5.500
         6.500
   5329096.912 6   4152542.001 6  21738661.263    21738668.036          17.750
        19.750
  -3602332.787 6  -2807012.410 6  22010500.630    22010507.153          16.500
        16.500
   6228970.917 6   4853741.643 6  21913352.552    21913359.712          15.250
        16.750
 97 10  3 17 29  0.0010000  0  7G 1G 9G21G31G23G 3G17
  -7162267.969 6  -5580982.040 6  22730448.138    22730455.661          13.000
        14.500
    -23716.686 4    -18479.749 5  24289998.935    24290007.474           6.750
         7.250
  -1708306.835 6  -1306014.620 6  21519312.021    21519318.728          17.750
        19.250
   -209029.338 3   -162879.781 5  24386242.942    24386250.942           5.750
         6.250
   5365129.641 6   4180619.442 6  21745518.130    21745524.938          18.000
        19.750
  -3597402.034 6  -2803170.268 6  22011438.849    22011445.392          16.250
        16.500
   6272900.630 6   4887972.579 6  21921712.122    21921719.271          15.250
        16.500
 97 10  3 17 29 15.0010000  0  7G 1G 9G21G31G23G 3G17
  -7191335.217 6  -5603631.809 6  22724916.888    22724924.474          13.250
        14.750
    -20546.542 4    -16009.470 5  24290601.974    24290610.864           6.750
         7.500
  -1702572.396 6  -1301546.221 6  21520403.294    21520409.970          18.000
        19.500
   -231288.285 4   -180224.403 5  24382007.372    24382014.872           6.250
         6.000
   5401238.485 6   4208756.201 6  21752389.536    21752396.200          18.000
        19.500
  -3592289.190 6  -2799186.239 6  22012411.856    22012418.575          16.250
        16.750
   6316952.869 6   4922298.974 6  21930094.966    21930102.204          15.000
        16.500
 97 10  3 17 29 30.0010000  0  7G 1G 9G21G31G23G 3G17
  -7220294.214 6  -5626197.248 6  22719406.153    22719413.759          13.000
        14.750
    -17234.632 4    -13428.734 5  24291232.028    24291241.009           6.750
         7.500
  -1696742.522 6  -1297003.470 6  21521512.685    21521519.423          17.750
        19.250
   -253421.754 4   -197471.244 5  24377795.513    24377803.052           6.500
         6.250
   5437420.030 6   4236949.598 6  21759274.630    21759281.337          17.750
        19.500
  -3586995.111 6  -2795060.988 6  22013419.161    22013425.849          16.000
        17.000
   6361125.905 6   4956719.504 6  21938500.802    21938507.860          15.250
        16.250
 97 10  3 17 29 45.0010000  0  7G 1G 9G21G31G23G 3G17
  -7249145.360 6  -5648678.646 6  22713916.099    22713923.407          13.000
        14.250
    -13783.466 4    -10739.494 5  24291888.958    24291897.704           6.750
         7.500
  -1690817.143 6  -1292386.292 6  21522640.208    21522647.024          17.750
        19.250
   -275432.928 4   -214622.810 5  24373606.864    24373614.610           6.500
         6.250
   5473672.786 6   4265198.484 6  21766173.317    21766179.962          17.750
        19.750
  -3581522.189 6  -2790796.368 6  22014460.653    22014467.384          16.000
        16.750
   6405419.486 6   4991233.966 6  21946929.653    21946936.825          15.000
        16.250
 97 10  3 17 30  0.0010000  0  7G 1G 9G21G31G23G 3G17
  -7277889.358 6  -5671076.552 6  22708446.450    22708453.634          13.500
        14.750
    -10194.244 4     -7942.680 5  24292572.325    24292580.841           7.250
         7.750
  -1684796.638 6  -1287694.990 6  21523785.903    21523792.618          18.000
        19.250
   -297319.363 4   -231677.155 5  24369441.935    24369449.724           6.500
         6.750
   5509995.460 6   4293501.859 6  21773085.388    21773092.130          17.750
        19.500
  -3575869.756 6  -2786391.879 6  22015536.286    22015543.063          16.000
        17.000
   6449832.316 6   5025841.347 6  21955381.161    21955388.345          15.000
        16.250
